GEFSCGP_con_probscp_156.txt.gz
Probability
0 0 0 0 0 0 0 0 0 0 0 0 1 2 2 3 5 12 27 47 63 70 72 74 74 70 67 67 67 65 65 64 59 54 53 52 49 45 39 35 32 28 22 17
0 0 0 0 0 0 0 0 0 0 0 0 0 1 2 4 7 14 26 44 61 70 75 76 76 72 68 67 66 65 64 63 59 55 53 52 50 45 39 34 33 30 25 20
0 0 0 0 0 0 0 0 0 0 0 0 0 1 4 8 11 14 21 35 55 68 75 78 77 71 64 63 62 60 60 60 58 54 50 48 47 43 36 33 32 29 24 21
0 0 0 0 0 0 0 0 0 0 0 0 0 1 6 11 13 12 15 26 45 63 70 72 71 65 59 56 55 55 55 56 55 51 45 42 42 40 35 33 33 29 23 20
0 0 0 0 0 0 0 0 0 0 0 0 0 1 5 11 12 10 11 20 38 56 62 63 61 58 54 50 48 49 50 49 50 48 42 38 39 40 37 35 35 32 25 22
0 0 0 0 0 0 0 0 0 0 0 0 0 1 4 8 10 9 10 18 35 51 58 58 56 53 49 43 41 43 44 44 47 46 40 37 39 40 37 35 35 31 26 24
0 0 0 0 0 0 0 0 0 0 0 0 0 1 3 5 8 8 10 18 33 48 55 57 56 51 43 37 36 39 40 40 41 40 38 38 39 37 33 31 30 25 22 20
0 0 0 0 0 0 0 0 0 0 0 0 0 0 2 4 6 7 8 14 26 40 49 53 52 47 38 34 34 36 36 35 34 34 36 37 35 30 25 24 23 20 18 17
1 0 0 0 0 0 0 0 0 0 0 0 0 0 2 3 5 5 4 8 19 31 41 45 44 41 38 34 32 31 30 29 30 32 33 32 30 25 21 19 19 18 18 19
1 0 0 0 0 0 0 0 0 0 0 0 0 0 1 2 3 2 3 7 15 25 35 40 39 39 39 35 30 27 26 27 28 28 26 24 24 23 20 18 18 19 20 21
1 0 0 0 0 0 0 0 0 0 0 0 0 0 1 2 1 1 3 7 14 21 30 37 38 38 38 35 30 28 27 26 26 24 21 18 19 20 19 17 18 21 22 23
0 0 0 0 0 0 0 0 0 0 0 0 0 1 2 2 1 1 3 7 12 19 25 31 34 36 36 34 32 32 28 25 23 21 18 15 16 17 16 16 18 21 23 22
0 0 0 0 0 0 0 0 0 0 0 0 1 2 3 3 2 2 3 6 12 19 24 28 32 35 37 37 37 35 29 22 20 19 17 15 16 16 15 15 18 21 22 21
0 0 0 0 0 0 0 0 0 0 0 0 1 3 4 4 3 2 4 7 13 21 28 32 37 39 41 43 42 37 30 23 20 20 17 16 16 16 14 15 19 22 21 20
1 1 1 1 0 0 0 0 0 0 0 0 2 4 6 6 5 3 5 7 11 20 30 38 43 45 46 48 47 42 35 29 26 24 20 18 18 16 15 16 19 22 22 21
5 3 3 3 1 0 0 0 0 0 0 1 3 6 9 11 9 8 8 9 11 15 24 37 45 48 49 51 50 48 43 39 35 30 25 24 24 21 19 19 21 24 24 22
9 8 6 3 1 0 0 0 0 0 0 2 5 9 12 13 11 10 12 14 14 14 23 36 44 46 46 47 49 49 47 45 40 33 29 29 31 30 28 25 27 30 29 28
12 12 7 2 0 0 1 2 2 2 3 5 7 9 11 11 10 10 13 15 15 17 28 40 44 42 40 40 43 44 43 43 40 34 30 32 35 38 37 36 37 40 39 36
12 11 6 1 0 1 2 3 4 6 8 9 9 9 10 9 9 10 13 16 17 19 31 42 44 42 42 42 42 41 41 41 40 36 35 39 43 45 44 45 48 50 48 45
10 10 6 1 0 1 2 2 4 8 10 10 9 10 12 12 11 12 15 20 20 22 30 40 45 48 50 51 48 44 42 43 43 42 43 49 54 54 53 54 58 58 53 48
8 8 6 2 1 1 2 2 5 11 14 12 9 9 11 13 12 14 19 22 23 22 25 34 44 52 57 57 54 50 47 46 47 48 51 56 59 58 56 61 65 62 52 45
7 9 9 6 6 7 7 7 11 18 20 16 11 8 10 12 13 17 22 24 24 22 23 30 39 48 55 57 57 57 55 51 50 52 55 59 60 55 53 59 62 56 44 38
7 10 14 14 14 13 11 12 15 15 15 14 12 9 9 10 12 16 22 25 24 23 25 29 34 42 48 51 54 58 60 57 54 55 57 60 59 55 52 52 51 44 36 29
8 10 14 17 16 12 9 9 8 6 6 8 8 7 7 8 9 14 20 22 21 22 25 28 32 38 43 45 48 53 59 60 58 57 59 59 57 55 52 47 40 34 29 27
7 9 12 15 14 10 7 4 2 1 2 4 4 5 5 6 9 13 17 17 16 19 22 26 31 34 37 41 45 49 54 59 60 59 59 58 55 52 48 41 31 25 23 22
7 8 11 14 14 11 7 4 1 0 1 3 3 4 4 6 9 13 15 15 14 18 22 25 28 30 32 39 45 47 52 57 59 59 59 58 54 51 45 36 25 17 14 14

GEFSCGP_con_probscp_162.txt.gz
Probability
0 0 0 0 0 0 0 0 0 0 0 0 0 2 8 18 30 38 43 48 49 47 49 54 55 53 50 45 39 36 31 24 20 19 18 16 19 21 18 11 9 9 8 7
0 0 0 0 0 0 0 0 0 0 0 0 1 2 6 15 25 33 40 47 51 51 52 56 57 57 54 49 44 40 34 27 22 20 20 19 19 20 17 12 10 10 9 8
0 0 0 0 0 0 0 0 0 0 0 0 1 2 3 9 18 27 36 44 51 55 56 57 57 56 56 53 50 45 38 31 25 22 21 22 20 17 16 13 10 10 9 8
0 0 0 0 0 0 0 0 0 0 0 0 1 1 1 4 12 21 30 40 50 55 58 57 53 53 54 53 51 46 39 32 28 24 22 22 20 16 13 12 10 8 8 7
0 0 0 0 0 0 0 0 0 0 0 0 0 0 0 2 6 13 22 34 46 53 56 55 52 51 51 49 48 44 38 32 29 25 22 21 19 15 12 12 11 9 8 7
0 0 0 0 0 0 0 0 0 0 0 0 0 0 0 1 4 8 15 26 39 49 54 54 53 52 49 46 44 40 35 30 27 24 21 18 15 13 12 12 12 11 9 8
0 0 0 0 0 0 0 0 0 0 0 0 0 0 0 0 2 6 12 20 31 42 50 53 54 53 49 44 40 36 31 27 25 22 18 14 12 12 12 12 11 11 10 8
0 0 0 0 0 0 0 0 0 0 0 0 0 0 0 0 1 4 10 18 26 35 42 48 50 48 45 41 37 33 29 27 24 19 15 11 10 9 9 9 9 9 9 8
0 0 0 0 0 0 0 0 0 0 0 0 0 0 1 1 1 3 8 16 23 28 34 39 40 39 36 34 33 31 28 25 21 15 12 9 8 8 8 7 7 7 7 7
0 0 0 0 0 0 0 0 0 0 0 0 0 0 1 2 3 4 7 13 18 20 25 30 31 31 30 30 29 28 26 22 17 13 10 9 9 9 9 7 6 6 6 6
0 0 0 0 0 0 0 0 0 0 0 0 0 0 1 2 3 4 5 10 13 13 17 23 26 27 28 28 26 24 22 20 16 13 10 10 11 11 10 8 6 6 6 6
0 0 0 0 0 0 0 0 0 0 0 0 0 0 0 2 3 3 5 8 9 8 10 16 20 23 24 24 22 20 21 20 17 15 12 11 11 12 12 10 7 6 6 6
0 0 0 0 0 0 0 0 0 0 0 0 0 0 1 2 4 6 7 8 8 7 8 11 16 18 19 19 19 19 21 21 18 17 15 12 11 12 12 11 8 7 6 6
0 0 0 0 0 0 0 0 0 0 0 0 0 0 2 3 5 8 10 9 7 7 8 13 16 15 14 16 18 20 23 24 21 18 15 13 12 12 11 11 10 8 7 6
0 0 0 0 0 0 0 0 0 0 0 0 0 0 2 3 5 7 10 9 8 8 10 14 16 13 11 13 16 20 24 25 22 18 15 14 13 11 10 10 9 9 7 6
0 0 0 0 0 0 0 0 0 0 0 0 0 1 2 3 3 5 8 9 8 9 11 12 12 10 9 11 14 18 22 23 21 17 14 11 9 8 8 7 6 6 5 4
0 0 1 1 1 0 0 0 0 0 0 1 1 2 3 3 2 4 8 9 8 8 11 11 9 8 8 9 12 15 16 16 16 15 13 8 4 3 4 4 4 4 4 4
0 0 1 1 1 0 0 0 0 0 1 2 2 3 6 6 4 6 8 8 6 6 9 9 7 7 8 9 11 12 11 10 11 11 10 6 3 1 1 2 3 4 5 5
0 0 0 1 1 0 0 0 0 1 2 3 5 7 9 8 6 6 7 7 5 5 7 7 7 10 12 12 11 11 10 8 7 6 6 5 3 1 1 2 3 5 7 6
0 0 0 0 0 0 1 1 1 1 3 5 8 10 9 7 6 6 8 7 6 6 7 8 10 13 16 16 14 13 10 7 5 4 4 4 4 3 2 3 3 5 6 6
0 0 0 0 0 1 2 2 1 1 2 5 8 9 8 7 7 8 9 9 9 10 11 12 13 14 16 18 18 15 11 8 6 6 6 6 7 6 5 4 3 4 5 5
0 0 0 0 0 1 3 3 2 1 2 4 5 7 9 9 9 8 8 10 12 13 14 15 14 12 13 17 19 17 14 11 9 8 9 9 9 9 8 6 5 6 5 4
0 0 0 0 1 2 3 4 3 2 2 3 4 7 10 10 9 7 7 10 12 12 13 15 14 11 11 14 16 15 15 14 13 13 12 11 10 10 10 8 9 10 9 7
0 0 0 1 1 2 4 5 4 3 3 4 5 8 9 9 7 6 6 9 10 10 11 13 13 12 12 12 11 11 13 16 17 18 17 15 13 11 9 8 10 12 12 11
0 0 1 1 1 2 4 4 3 2 3 4 5 7 8 8 7 6 6 7 8 8 10 11 11 11 12 11 10 8 10 13 16 17 19 17 15 11 7 5 6 7 8 9
0 1 2 2 1 2 3 3 1 1 2 4 5 6 7 8 8 6 5 6 6 7 8 8 8 9 10 11 9 7 7 9 12 14 16 15 13 9 6 3 2 2 3 4

GEFSCGP_con_probscp_168.txt.gz
Probability
0 0 0 0 0 0 0 0 0 0 0 0 1 3 8 13 14 14 17 20 21 22 25 30 37 37 30 22 16 10 5 3 3 3 4 3 2 1 0 0 0 0 0 1
0 0 0 0 0 0 0 0 0 0 0 0 0 2 6 10 11 13 17 21 23 25 29 34 38 37 32 26 17 9 4 3 3 3 4 4 3 1 0 0 0 0 1 2
0 0 0 0 0 0 0 0 0 0 0 0 0 1 3 5 5 8 15 21 23 27 34 39 40 37 32 27 19 10 5 4 3 3 3 3 2 1 0 1 1 1 2 3
0 0 0 0 0 0 0 0 0 0 0 0 0 0 0 1 1 3 10 16 20 25 34 39 40 37 32 27 23 16 9 6 5 4 4 3 2 0 1 2 3 3 3 3
0 0 0 0 0 0 0 0 0 0 0 0 0 0 0 0 0 1 5 11 16 22 30 35 37 37 33 30 28 23 15 10 8 6 5 5 3 2 2 3 4 4 4 4
0 0 0 0 0 0 0 0 0 0 0 0 0 0 0 0 0 1 3 8 13 19 25 29 33 36 35 33 33 29 21 16 13 10 8 8 7 6 5 5 5 4 4 4
0 0 0 0 0 0 0 0 0 0 0 0 0 0 0 0 0 0 1 6 12 16 21 25 29 34 36 37 37 32 25 21 20 16 13 11 10 8 7 6 6 5 5 5
0 0 0 0 0 0 0 0 0 0 0 0 0 0 0 0 0 0 0 3 9 15 19 23 27 32 36 39 39 35 28 26 25 21 18 16 14 11 9 8 7 6 6 6
0 0 0 0 0 0 0 0 0 0 0 0 0 0 0 0 0 0 0 3 8 13 16 20 25 31 36 40 40 36 32 30 28 24 21 19 16 14 11 9 7 7 7 8
0 0 0 0 0 0 0 0 0 0 0 0 0 0 0 0 0 0 1 3 7 10 12 17 23 29 35 39 39 36 32 28 27 25 21 17 15 14 11 8 6 7 7 7
0 0 0 0 0 0 0 0 0 0 0 0 0 0 0 0 0 0 1 3 7 9 12 16 21 26 31 34 35 32 27 23 22 23 20 16 13 13 11 7 6 6 6 5
0 0 0 0 0 0 0 0 0 0 0 0 0 0 0 0 0 0 1 3 6 9 11 14 19 23 25 26 27 27 24 21 20 20 18 14 13 12 11 9 7 6 4 4
0 0 0 0 0 0 0 0 0 0 0 0 0 0 0 0 0 0 1 4 6 8 10 12 15 18 18 18 21 23 24 22 21 19 17 14 12 11 10 10 8 5 4 5
0 0 0 0 0 0 0 0 0 0 0 0 0 0 0 0 0 1 2 4 7 8 9 10 10 11 12 13 16 20 23 23 21 20 17 14 12 11 10 10 9 7 5 5
0 0 0 0 0 0 0 0 0 0 0 0 0 0 0 0 0 1 3 5 7 7 7 6 5 6 8 11 12 15 19 21 19 18 16 14 13 12 11 10 9 8 6 5
0 0 0 0 0 0 0 0 0 0 0 0 0 0 0 0 0 1 3 6 7 5 3 2 1 2 5 8 10 11 13 15 16 15 14 13 13 13 12 10 9 8 6 4
0 0 0 0 0 0 0 0 0 0 0 0 0 0 0 0 0 1 3 6 6 3 1 0 0 0 2 5 7 8 8 9 10 10 10 10 10 11 10 8 7 6 5 4
0 0 0 0 0 0 0 0 0 0 0 0 0 0 1 1 1 0 2 4 4 2 0 0 0 0 0 2 3 4 5 5 5 6 7 7 8 7 6 4 3 3 3 2
0 0 0 0 0 0 0 0 0 0 0 0 0 1 2 2 1 0 0 1 1 0 0 0 0 0 0 0 1 3 4 3 3 4 6 6 6 6 4 3 2 1 1 0
0 0 0 0 0 0 0 0 1 0 0 0 1 2 2 1 1 0 0 0 0 0 0 0 0 1 2 1 1 3 4 4 3 4 6 6 6 6 4 3 3 1 0 0
0 0 0 0 0 0 0 0 0 0 0 0 1 2 2 0 0 0 0 0 0 0 1 1 1 2 2 2 3 3 3 3 3 4 6 6 6 6 4 3 3 2 1 0
0 0 0 0 0 0 0 0 0 0 0 0 1 2 1 1 1 1 1 1 1 1 2 2 3 2 2 3 3 3 2 2 2 3 5 6 6 6 5 4 3 2 1 0
0 0 0 0 0 1 1 0 0 0 0 1 1 1 1 1 2 2 2 2 3 2 3 3 3 3 2 3 3 3 2 3 2 2 3 4 4 4 4 4 3 2 1 1
0 0 0 0 1 2 2 1 0 0 0 1 2 1 0 1 2 2 3 3 5 5 4 3 3 3 3 3 4 4 4 5 3 1 1 2 2 3 3 4 4 3 2 2
0 0 0 0 1 2 2 1 1 1 1 1 1 1 2 3 4 4 3 3 5 6 5 4 4 3 4 5 5 5 6 6 4 3 2 3 4 4 4 4 4 3 2 2
0 0 0 0 1 1 1 1 1 2 2 1 1 1 3 5 6 5 4 3 4 4 4 5 5 4 4 5 5 5 6 6 5 5 6 5 5 5 5 5 3 1 1 1

GEFSCGP_con_probscp_174.txt.gz
Probability
0 0 0 0 0 0 0 0 0 0 0 0 0 1 2 3 4 4 7 12 19 22 28 35 36 33 34 37 39 40 38 33 27 26 24 20 16 12 9 7 6 3 1 0
0 0 0 0 0 0 0 0 0 0 0 0 0 0 1 2 3 4 5 9 15 21 29 35 37 38 40 43 43 42 39 33 28 26 25 22 18 14 11 9 7 3 1 0
0 0 0 0 0 0 0 0 0 0 0 0 0 0 0 1 4 5 4 6 10 17 28 37 41 44 45 46 46 42 39 32 27 26 24 20 17 15 13 11 7 4 2 1
0 0 0 0 0 0 0 0 0 0 0 0 0 0 1 2 4 5 5 5 7 12 24 37 45 48 47 45 42 40 35 29 26 26 22 17 14 12 13 12 9 8 6 3
0 0 0 0 0 0 0 0 0 0 0 0 0 0 0 1 2 3 4 5 7 11 22 35 45 50 49 43 40 38 33 27 25 25 22 17 13 12 15 16 14 14 12 8
0 0 0 0 0 0 0 0 0 0 0 0 0 0 0 0 0 1 2 3 5 11 21 32 43 50 50 45 41 39 35 29 26 26 23 19 15 16 21 22 20 18 15 12
0 0 0 0 0 0 0 0 0 0 0 0 0 0 0 0 0 0 1 2 5 12 20 30 43 50 50 47 45 41 38 34 31 28 26 22 18 20 23 24 22 19 15 13
0 0 0 0 0 0 0 0 0 0 0 0 0 0 0 0 0 0 1 3 7 12 18 27 37 43 44 45 44 42 41 39 36 33 30 28 24 22 22 22 21 18 14 11
0 0 0 0 0 0 0 0 0 0 0 0 0 0 0 0 0 0 1 5 9 12 16 21 26 31 35 39 41 42 42 41 39 36 34 32 28 23 21 20 18 16 14 13
0 0 0 0 0 0 0 0 0 0 0 0 0 0 0 0 0 0 2 5 9 11 13 16 20 24 29 34 37 39 40 40 37 35 34 32 29 23 18 16 16 16 17 17
0 0 0 0 0 0 0 0 0 0 0 0 0 0 0 1 1 1 2 4 7 9 11 16 20 24 29 31 33 38 39 37 35 34 32 30 27 22 18 16 16 19 21 21
0 0 0 0 0 0 0 0 0 0 0 0 0 0 0 1 1 0 1 3 6 9 13 18 22 26 29 30 34 39 39 36 34 33 31 29 27 23 19 17 17 19 21 22
0 0 0 0 0 0 0 0 0 0 0 0 0 0 0 0 0 0 0 3 7 11 16 21 24 26 29 31 35 37 35 32 31 31 31 29 27 25 21 18 17 17 19 20
0 0 0 0 0 0 0 0 0 0 0 0 0 0 0 0 0 0 2 5 10 13 18 23 25 25 26 29 32 31 28 28 29 30 30 29 27 25 21 19 17 16 15 15
1 0 0 0 0 0 0 0 0 0 0 0 0 0 0 0 0 2 4 8 12 15 19 24 27 25 24 26 30 29 27 27 28 29 29 29 27 26 24 22 19 17 15 13
1 1 0 0 0 0 0 0 0 0 0 0 0 0 0 0 1 3 7 10 13 16 20 25 26 26 26 27 31 32 30 28 29 28 27 27 27 28 27 25 23 21 19 17
1 1 1 0 0 0 1 1 0 0 0 0 0 0 0 1 3 5 9 12 14 17 21 24 25 26 27 29 32 34 32 31 29 26 24 23 23 25 24 22 23 23 23 23
1 2 1 0 0 1 2 2 2 1 1 2 1 1 2 4 5 6 9 12 15 19 22 23 22 23 25 27 30 33 33 33 30 25 21 19 19 19 19 20 22 24 24 24
1 1 1 0 0 2 3 4 3 4 5 5 4 3 3 5 5 6 8 11 15 18 22 22 19 20 22 24 27 31 32 32 30 25 20 18 17 17 18 20 22 24 23 21
0 0 0 0 0 2 4 4 3 4 6 7 7 6 4 4 5 7 10 13 16 18 20 21 20 19 21 23 26 27 28 29 29 25 21 19 19 18 18 20 22 22 21 19
0 0 0 0 1 3 6 5 4 7 10 11 11 9 7 6 8 12 15 17 18 19 19 21 22 22 22 24 25 23 24 26 27 25 23 22 20 17 17 19 19 18 17 17
3 3 2 2 3 5 9 10 11 14 18 16 15 15 14 13 14 18 20 20 20 20 21 23 24 23 24 25 25 23 21 21 22 23 22 21 19 15 14 17 18 16 14 13
8 7 6 6 4 6 11 17 19 20 20 20 18 19 18 17 20 22 23 23 23 23 25 25 24 22 22 22 23 23 21 19 18 19 18 17 16 13 12 14 14 13 13 11
9 9 10 8 5 5 11 19 23 22 21 21 20 19 18 21 24 25 25 25 25 26 28 28 26 23 20 19 20 22 21 20 18 17 16 14 13 12 12 12 12 12 13 13
8 10 11 8 5 5 10 16 21 22 20 20 19 18 20 23 25 26 27 27 26 26 27 28 27 25 22 19 19 20 21 21 20 18 17 15 13 12 12 12 11 11 11 12
7 11 12 8 5 6 9 12 16 18 18 17 17 18 21 23 23 25 27 26 24 24 24 25 26 26 23 21 21 21 21 21 21 20 19 16 13 12 12 12 10 8 6 6

GEFSCGP_con_probscp_180.txt.gz
Probability
0 0 0 0 0 0 0 0 0 0 0 0 1 1 1 0 3 12 24 33 38 45 54 61 62 59 63 69 70 67 66 64 56 45 37 36 37 35 34 39 39 29 15 8
0 0 0 0 0 0 0 0 0 0 0 0 1 1 0 1 3 10 21 30 37 46 57 63 63 62 65 70 70 68 68 65 58 48 41 40 40 35 32 38 41 31 18 13
0 0 0 0 0 0 0 0 0 0 0 0 0 0 1 3 4 7 15 23 31 43 56 66 67 65 67 71 71 69 69 66 61 53 45 42 42 37 35 41 43 34 24 20
0 0 0 0 0 0 0 0 0 0 0 0 0 0 3 6 6 6 10 15 22 36 53 67 71 68 68 69 68 67 66 65 62 55 49 45 41 37 36 42 43 38 30 25
0 0 0 0 0 0 0 0 0 0 0 0 0 0 4 8 8 6 7 11 17 31 52 68 74 72 69 67 64 62 63 63 60 56 52 47 40 34 35 40 43 42 36 30
0 0 0 0 0 0 0 0 0 0 0 0 0 1 4 9 9 7 9 12 18 30 50 67 75 76 72 67 63 62 64 63 59 57 54 49 42 38 40 43 43 43 40 35
0 0 0 0 0 0 0 0 0 0 0 0 0 2 6 8 8 8 10 14 18 29 47 64 73 76 75 71 67 66 68 66 60 58 56 51 44 42 45 45 43 41 38 36
0 0 0 0 0 0 0 0 0 0 0 0 0 2 5 6 6 8 10 13 17 28 43 58 67 73 75 74 72 70 70 68 63 59 55 49 43 40 41 43 43 41 39 39
0 0 0 0 0 0 0 0 0 0 0 0 1 2 3 4 4 6 9 11 16 27 40 53 63 69 71 71 71 69 69 68 64 59 52 45 40 38 39 43 44 44 44 43
0 0 0 0 0 0 0 0 0 0 0 0 1 2 4 5 5 6 8 12 18 27 38 49 60 67 68 66 65 65 65 65 63 58 51 45 43 41 42 45 47 47 47 46
0 0 0 0 0 0 0 0 0 0 1 1 1 2 5 9 9 8 10 16 22 26 32 42 54 62 64 62 63 63 62 61 60 56 50 47 47 45 44 46 49 50 49 49
1 0 0 0 0 0 0 0 0 1 2 2 1 3 5 7 8 9 13 21 27 29 28 35 45 54 57 59 61 62 60 58 57 53 49 47 49 48 45 47 49 49 49 50
1 0 0 0 0 0 0 0 0 1 2 2 2 4 5 5 6 9 15 23 30 31 32 36 45 51 55 58 61 61 59 56 53 50 47 47 48 48 47 48 50 49 47 46
1 0 0 0 0 0 0 0 0 0 1 1 2 4 4 5 6 9 15 23 27 30 37 45 50 53 56 60 61 60 57 52 48 47 45 45 47 48 48 50 51 49 44 39
1 0 0 0 0 0 0 0 0 0 0 0 1 3 6 8 9 10 15 21 23 28 39 49 53 54 55 56 56 55 54 51 47 45 44 44 44 45 47 49 51 50 42 34
2 1 1 0 0 0 0 0 0 0 0 1 2 5 8 11 12 13 18 23 27 32 39 48 53 53 51 50 49 50 52 52 50 47 44 43 43 43 43 44 46 47 41 34
2 3 3 1 1 1 1 1 0 1 3 4 6 9 11 13 16 19 24 29 35 38 42 48 52 52 52 49 48 49 51 52 52 48 45 43 42 39 36 37 41 42 37 34
3 5 4 1 1 2 2 2 2 5 9 12 13 13 15 17 19 21 26 33 38 41 45 49 48 49 52 52 51 49 49 49 50 48 45 42 38 33 31 33 38 38 34 32
2 4 3 1 1 2 4 6 7 10 16 19 18 17 18 18 18 19 25 33 38 43 47 46 44 46 51 53 52 49 47 48 48 45 42 39 35 31 30 33 36 36 33 32
1 2 2 1 1 3 7 11 12 13 18 22 24 24 22 19 19 24 32 37 41 44 45 43 41 44 50 52 50 47 47 48 48 44 41 39 36 34 32 33 34 34 32 31
0 1 2 2 2 6 11 14 15 19 25 27 29 29 27 25 27 35 42 45 45 44 42 42 43 45 47 47 46 46 46 46 45 44 41 39 38 35 33 32 33 32 29 26
2 3 4 6 8 14 19 20 23 31 36 35 32 31 30 30 32 39 45 47 46 42 39 41 44 44 43 42 43 45 45 43 42 41 39 36 34 31 29 29 30 29 27 24
8 9 9 12 17 23 26 28 32 37 39 37 34 31 29 28 31 37 42 45 44 41 39 40 41 40 40 41 42 45 44 42 40 38 35 31 26 23 22 22 23 23 23 22
13 14 14 16 20 25 27 30 33 33 32 32 30 26 24 25 30 35 39 41 42 41 41 41 40 38 38 39 41 42 41 39 36 31 28 23 19 16 15 14 14 14 15 15
12 14 16 17 20 23 26 30 33 31 27 25 23 20 21 24 29 34 37 39 41 42 43 44 42 39 36 36 36 36 35 33 28 23 20 17 15 14 12 9 8 8 8 8
10 12 14 16 20 23 26 31 33 31 27 22 17 17 22 26 30 34 36 39 41 43 44 45 43 38 34 33 33 32 31 28 23 18 16 15 15 15 13 9 7 6 5 4

GEFSCGP_con_probscp_186.txt.gz
Probability
0 0 0 0 0 0 0 0 0 0 1 3 2 2 6 11 15 20 26 32 37 41 43 46 49 50 49 48 48 47 47 43 34 25 19 14 8 5 3 1 0 0 0 0
0 0 0 0 0 0 0 0 0 1 2 3 3 2 4 9 14 18 23 29 36 42 48 52 54 54 52 51 51 51 49 45 37 27 20 14 10 7 4 1 0 0 1 2
0 0 0 0 0 0 0 0 0 1 2 3 3 2 3 7 12 17 23 29 36 43 53 59 61 59 55 54 56 56 51 45 38 29 19 13 10 8 6 3 2 3 5 6
0 0 0 0 0 0 0 0 0 1 1 1 1 1 2 5 10 17 26 33 37 44 55 63 65 61 57 56 57 57 51 42 36 29 20 12 9 8 8 7 6 7 7 8
0 0 0 0 0 0 0 0 0 0 0 0 0 0 1 4 9 17 25 33 39 45 55 63 65 62 57 55 55 53 49 40 32 28 21 14 10 8 8 9 9 8 7 6
0 0 0 0 0 0 0 0 0 0 0 0 0 0 2 5 9 16 24 32 39 46 54 61 62 60 56 53 52 50 47 40 32 27 22 16 12 9 8 10 10 9 7 5
0 0 0 0 0 0 0 0 0 0 0 0 0 0 2 4 8 15 23 30 36 45 54 59 60 59 56 52 49 48 46 40 33 29 24 18 13 9 7 8 9 11 11 9
0 0 0 0 0 0 0 0 0 0 0 0 0 0 1 2 6 13 20 26 33 45 54 57 58 58 56 52 49 48 46 41 35 31 25 19 13 7 5 6 7 9 10 10
0 0 0 0 0 0 0 0 0 0 0 0 1 1 0 1 5 12 17 24 33 44 52 57 57 55 54 51 49 49 49 44 37 30 23 17 10 6 4 4 5 5 6 7
0 0 0 0 0 0 0 0 0 0 0 0 1 1 1 2 6 11 17 25 34 42 50 55 55 52 51 51 50 50 51 47 38 30 24 18 12 7 4 3 3 2 3 6
0 0 0 0 0 0 0 0 0 0 0 0 1 1 1 3 6 10 17 26 33 38 44 50 51 48 48 49 51 54 52 47 41 35 31 27 20 13 7 5 4 4 5 6
0 0 0 0 0 0 0 0 0 0 0 0 0 0 1 5 8 10 17 25 31 34 39 44 47 46 46 48 52 55 52 47 43 41 40 35 28 20 14 10 9 8 7 6
0 0 0 0 0 0 0 0 0 0 0 0 0 0 1 5 9 11 16 24 30 34 39 42 44 45 47 48 51 52 51 48 44 41 40 36 31 25 20 17 15 12 9 6
0 0 0 0 0 0 0 0 0 0 0 0 0 0 1 3 7 10 16 26 33 38 40 40 41 43 46 47 47 46 47 45 40 37 35 32 30 28 23 19 17 15 11 8
0 0 0 0 0 0 1 0 0 0 0 0 0 0 1 3 7 11 20 28 35 39 40 39 38 39 43 44 43 42 42 40 37 36 34 31 28 28 25 20 18 17 14 12
0 0 0 0 0 0 0 0 0 0 0 0 0 1 3 8 12 18 24 28 31 35 38 39 38 38 39 41 40 39 37 35 36 38 38 33 27 24 23 20 18 18 17 15
0 0 0 0 0 0 1 1 1 2 3 3 4 5 8 13 17 20 24 26 27 29 34 38 38 37 38 38 36 34 33 33 35 38 39 34 26 21 18 16 14 14 15 14
0 0 0 0 0 1 2 2 3 6 9 10 11 12 13 16 17 18 21 25 27 27 30 33 34 36 36 34 32 30 30 30 32 35 35 31 25 19 14 11 8 9 11 12
0 0 0 0 0 1 2 3 5 8 11 15 18 18 17 16 18 19 20 23 26 29 30 31 33 35 35 33 31 30 28 26 27 29 28 25 22 17 12 9 7 7 8 10
0 0 0 0 1 1 2 4 6 7 9 13 18 20 19 16 16 18 20 23 26 29 31 32 34 36 35 32 31 30 27 23 22 22 22 21 19 15 12 10 8 7 8 9
0 0 0 0 1 2 3 7 8 7 8 9 14 18 19 17 15 16 20 24 28 30 32 33 35 36 34 32 30 27 23 20 19 19 20 19 16 13 12 10 8 7 8 9
1 0 0 0 1 1 4 6 7 7 8 10 14 18 20 19 17 17 20 23 27 29 30 31 32 31 29 29 28 23 19 18 19 20 20 17 14 13 12 10 8 7 7 7
2 1 0 1 2 2 3 4 5 7 11 16 19 19 20 20 19 18 19 21 23 26 29 29 28 27 26 26 25 20 16 17 19 19 17 14 12 12 11 10 9 7 6 6
2 1 1 3 4 5 4 4 7 10 15 21 22 19 18 18 17 17 20 22 23 26 28 28 28 27 27 26 21 16 14 15 15 16 14 11 10 9 8 7 7 6 6 6
1 0 1 3 4 5 5 5 8 11 16 18 18 16 15 16 17 18 21 25 27 28 28 27 27 27 26 24 18 15 14 13 13 13 12 9 7 6 5 4 4 3 3 3
0 0 1 2 2 3 4 5 7 10 13 15 14 12 13 16 17 19 23 28 29 30 29 26 25 24 22 20 17 15 14 13 12 12 11 9 7 4 2 2 2 2 1 1

GEFSCGP_con_probscp_192.txt.gz
Probability
0 0 0 0 0 0 0 0 1 1 0 1 2 3 1 1 2 2 3 7 9 9 8 8 12 19 22 20 17 14 10 7 6 5 4 3 1 0 0 0 0 0 0 0
0 0 0 0 0 0 0 1 2 2 1 1 2 3 2 1 1 1 2 5 8 11 13 12 15 21 24 24 21 18 13 9 7 5 4 2 1 0 0 0 0 0 0 0
0 0 0 0 0 0 0 1 2 3 2 1 2 3 1 0 0 0 1 2 6 12 19 21 23 27 30 30 28 23 18 14 11 8 7 5 3 2 1 0 0 0 0 0
0 0 0 0 0 0 0 1 2 2 2 1 2 2 1 0 0 0 0 1 5 13 23 28 31 35 37 37 33 26 22 21 19 16 15 13 10 6 3 1 0 0 0 0
0 0 0 0 0 0 0 0 1 1 1 0 1 1 0 0 1 0 0 2 6 14 25 34 38 41 43 43 36 28 25 26 26 24 23 21 16 11 7 3 2 1 0 1
0 0 0 0 0 0 0 0 0 0 0 0 0 0 0 0 0 0 0 1 5 13 24 35 41 44 46 43 37 30 27 27 28 26 25 23 19 13 9 7 5 3 2 3
0 0 0 0 0 0 0 0 1 0 0 0 0 0 0 0 0 0 1 3 5 10 19 31 41 46 47 43 37 31 28 27 27 26 24 21 17 13 10 8 7 5 5 5
0 0 0 0 0 0 0 0 0 0 0 0 0 0 0 0 1 2 3 5 7 9 14 24 37 45 46 43 37 33 29 27 25 25 24 21 16 13 10 8 7 7 6 6
0 0 0 0 0 0 0 0 0 0 0 0 0 0 0 1 3 4 5 6 7 8 12 21 32 40 42 40 37 34 32 28 25 25 24 20 16 14 11 8 6 6 6 6
0 0 0 0 0 0 0 0 0 0 0 0 0 0 0 0 2 3 4 5 6 7 12 20 29 36 37 37 36 35 34 30 25 25 24 20 16 14 11 8 6 6 5 5
0 0 0 0 0 0 0 0 0 0 0 0 0 0 0 0 0 1 2 3 5 8 13 20 26 31 34 35 36 36 33 29 26 27 25 21 17 13 10 8 5 4 3 2
0 0 0 0 0 0 0 0 0 0 0 0 0 0 0 0 0 1 2 4 7 11 14 18 22 27 30 34 37 36 32 27 26 28 27 23 19 14 10 9 8 6 3 1
0 0 0 0 0 0 0 0 0 0 0 0 0 0 0 1 1 2 4 9 13 14 15 16 19 24 28 33 37 37 33 28 27 28 27 26 23 20 16 13 11 9 6 5
0 0 0 0 0 0 0 0 0 0 0 0 0 0 0 1 2 3 7 15 19 18 15 14 16 21 26 31 33 33 31 30 30 30 29 27 26 25 21 16 12 10 9 8
0 0 0 0 0 0 0 0 0 0 0 0 0 1 1 2 4 7 11 19 22 19 15 12 14 19 23 26 28 27 28 30 33 33 30 27 25 25 22 18 13 10 10 10
0 0 0 0 0 0 0 0 0 0 0 0 0 1 2 3 6 10 14 20 22 18 14 14 18 21 23 25 27 26 26 30 32 33 31 27 24 23 20 19 16 13 11 10
0 0 0 0 0 0 1 1 1 0 0 0 0 1 2 3 5 8 11 16 19 18 16 17 22 24 24 25 27 27 27 28 29 30 29 27 23 20 19 20 18 15 11 10
0 0 0 0 0 1 2 3 2 1 1 2 2 3 4 4 5 6 7 10 14 17 17 19 22 22 20 20 23 25 25 25 25 25 25 24 21 18 18 18 17 12 9 9
0 0 0 0 0 1 2 3 3 3 4 5 5 6 7 6 7 6 4 6 11 14 16 18 19 19 17 17 21 24 22 20 20 20 20 20 19 17 15 14 12 9 7 7
0 0 0 0 0 1 2 3 2 3 4 5 5 7 7 6 5 4 3 6 10 12 15 18 18 18 17 19 23 24 21 17 15 14 15 15 15 14 11 9 8 7 7 5
0 0 0 0 0 0 1 2 2 1 2 3 5 6 6 4 3 2 2 6 10 12 15 17 18 17 18 21 23 23 20 16 12 11 12 12 10 8 7 7 7 7 5 4
0 0 0 0 0 0 1 2 1 0 1 4 6 5 5 5 4 2 3 7 11 12 14 14 13 14 17 20 23 22 20 17 14 13 13 10 6 5 6 7 8 7 4 3
0 0 0 0 1 1 1 1 1 0 1 4 5 5 6 6 5 4 6 9 11 13 14 13 11 13 16 19 22 22 21 19 17 16 13 8 4 4 6 7 7 6 5 4
0 0 0 1 2 2 1 0 0 0 1 3 5 6 6 6 6 7 10 11 13 15 17 16 15 16 17 17 18 18 19 19 18 16 12 7 4 4 6 7 6 5 5 4
0 0 0 1 2 2 1 0 0 1 2 4 5 6 6 6 8 11 12 13 14 16 18 19 19 18 17 15 13 13 15 17 18 16 11 6 3 3 5 5 4 3 2 2
0 0 0 1 1 1 0 0 1 3 3 5 6 6 6 7 9 13 13 13 14 15 19 21 21 19 16 13 11 11 13 15 17 17 12 6 3 2 3 3 2 1 0 0

GEFSCGP_con_probscp_198.txt.gz
Probability
0 0 0 0 0 0 0 0 0 1 0 0 0 0 0 0 0 0 0 1 5 7 9 13 16 17 18 19 21 21 19 18 19 17 16 15 13 12 7 3 1 0 0 0
0 0 0 0 0 0 0 0 1 1 1 0 0 0 0 0 0 0 0 1 4 6 11 18 21 22 24 25 25 25 24 24 22 18 15 13 13 11 7 3 1 1 0 0
0 0 0 0 0 0 0 0 1 2 1 0 0 0 0 0 0 0 0 1 3 5 10 20 26 30 32 31 28 29 31 32 29 23 18 15 13 11 8 4 2 2 1 0
0 0 0 0 0 0 0 0 0 1 1 0 0 0 0 0 0 0 0 1 4 5 8 17 28 35 37 34 31 32 36 37 35 30 25 20 17 14 11 7 4 2 1 0
0 0 0 0 0 0 0 0 0 0 0 0 0 0 0 0 0 0 0 2 4 5 6 13 25 36 39 36 34 36 40 39 36 32 29 26 22 18 15 11 7 5 4 3
0 0 0 0 0 0 0 0 0 0 0 0 0 0 0 0 0 0 0 2 5 6 6 10 21 33 41 39 36 38 41 39 34 29 27 26 24 20 17 14 11 9 8 7
0 0 0 0 0 0 0 0 0 0 0 0 0 0 0 0 0 0 1 4 7 8 8 10 17 29 39 43 41 40 42 38 31 26 25 24 23 21 19 16 13 10 8 7
0 0 0 0 0 0 0 0 0 0 0 0 0 0 0 0 0 1 2 5 7 10 11 12 15 21 31 41 44 43 43 38 30 27 26 24 22 20 19 17 14 10 7 6
0 0 0 0 0 0 0 0 0 0 0 0 0 0 0 0 0 1 3 5 8 11 13 13 13 14 22 35 43 43 41 38 33 30 28 25 22 19 18 17 15 11 8 7
0 0 0 0 0 0 0 0 0 0 0 0 0 0 0 0 0 1 3 6 9 11 12 14 15 15 21 30 38 39 38 38 35 30 27 25 21 18 16 15 14 10 8 8
0 0 0 0 0 0 0 0 0 0 0 0 0 0 0 0 0 0 3 8 13 14 13 14 16 19 24 30 35 36 35 35 32 27 24 23 20 18 15 14 13 10 8 7
0 0 0 0 0 0 0 0 0 0 0 0 0 0 0 0 0 0 4 12 18 18 16 16 17 20 24 29 34 35 32 30 27 24 22 20 19 18 16 15 14 12 9 8
0 0 0 0 0 0 0 0 0 0 0 0 0 0 0 0 0 2 6 12 18 22 25 25 24 25 28 30 34 35 32 28 25 22 19 18 19 19 19 18 17 15 13 10
0 0 0 0 0 0 0 0 0 0 0 0 0 0 0 1 2 5 9 12 16 24 32 34 32 33 35 36 35 36 35 32 28 25 22 21 22 22 22 20 17 17 16 13
0 0 0 0 0 0 0 0 0 0 0 0 0 0 1 2 5 9 12 13 17 23 31 34 34 35 36 37 36 37 39 37 34 32 31 30 28 28 25 21 19 20 20 18
0 0 0 0 0 0 0 0 0 0 0 0 0 1 2 4 7 11 14 16 18 22 25 28 31 32 32 33 33 37 42 43 40 40 39 38 35 32 30 27 26 28 28 27
0 0 0 0 0 0 0 0 0 0 0 0 0 1 4 5 7 10 15 17 19 20 21 22 26 29 30 29 30 35 42 45 43 40 39 39 36 34 33 32 32 34 34 34
0 0 0 0 0 0 0 0 0 0 0 1 2 3 5 7 9 12 15 18 20 21 20 19 21 26 29 29 29 33 39 43 40 34 34 35 34 33 35 35 35 36 37 38
0 0 0 0 0 0 1 0 0 0 1 3 5 7 8 9 11 13 15 18 21 24 23 19 20 25 29 30 29 31 37 39 35 30 30 33 34 33 34 35 35 36 36 36
0 0 0 0 0 0 1 1 0 1 3 7 10 10 10 12 13 15 17 19 23 26 25 20 21 27 32 33 31 31 35 36 33 30 31 34 34 31 31 32 34 34 33 31
0 0 0 0 0 0 1 2 3 5 8 12 14 13 12 14 17 18 18 20 22 24 23 22 23 29 34 36 34 35 38 38 36 35 34 36 34 29 26 28 31 32 29 26
1 0 0 0 1 2 5 8 10 13 16 15 14 13 13 15 18 17 17 18 19 20 20 21 22 26 33 37 38 40 41 40 38 35 33 34 32 26 23 25 27 27 24 20
2 2 2 2 3 6 10 15 18 19 19 16 11 11 13 13 13 13 15 17 18 19 20 21 21 23 31 37 39 40 38 37 33 30 28 29 28 25 22 23 23 21 18 16
4 5 5 6 8 10 13 18 20 19 17 14 10 10 11 10 9 10 13 16 17 19 19 21 22 23 28 35 37 35 33 32 30 27 26 26 25 23 21 21 19 16 14 14
6 7 8 10 11 12 15 19 20 17 13 10 9 10 11 10 9 10 14 15 17 19 21 22 23 24 26 29 32 30 30 31 31 29 28 26 23 20 18 15 12 9 9 10
6 7 9 11 11 12 15 19 20 15 9 8 9 10 11 10 10 12 15 15 16 20 23 24 24 24 24 25 26 27 28 31 32 32 30 26 21 18 15 11 6 4 4 4

GEFSCGP_con_probscp_204.txt.gz
Probability
0 0 0 0 0 0 0 1 2 1 0 1 2 1 2 3 4 9 18 22 27 37 44 45 44 44 48 53 54 52 52 50 44 36 30 27 24 22 20 23 27 26 20 18
0 0 0 0 0 0 0 1 2 1 0 1 2 2 2 2 3 8 17 24 28 36 47 52 52 52 56 59 59 56 55 52 45 39 34 30 28 25 23 25 29 27 21 20
0 0 0 0 0 0 0 1 1 0 0 0 1 1 2 3 2 6 15 24 28 34 47 59 63 61 61 64 63 59 58 55 50 44 38 34 31 27 25 27 28 25 20 18
0 0 0 0 0 0 0 0 0 0 0 0 0 1 3 4 3 5 12 20 25 31 43 59 68 66 62 63 63 62 62 60 57 50 42 37 33 29 27 26 25 22 17 15
0 0 0 0 0 0 0 0 0 0 0 0 0 1 3 5 3 3 7 13 20 28 39 54 65 67 64 61 63 66 68 67 61 53 44 39 36 32 28 25 24 22 18 16
0 0 0 0 0 0 0 0 0 0 0 0 0 1 2 3 2 1 3 8 16 26 37 48 59 66 65 62 63 68 73 72 64 53 43 38 37 34 29 26 24 23 20 19
0 0 0 0 0 0 0 0 0 0 0 0 0 1 1 1 0 1 3 8 15 25 36 47 57 63 64 63 66 72 75 74 66 53 43 39 36 32 28 26 24 22 20 19
0 0 0 0 0 0 0 0 0 0 0 0 1 1 1 0 1 2 6 11 15 23 35 46 54 58 59 61 66 71 73 71 63 52 44 40 36 29 26 26 23 20 19 18
0 0 0 0 0 0 0 0 0 0 0 1 1 0 1 1 2 4 8 13 17 23 30 39 47 50 51 54 58 63 65 62 56 49 43 40 35 28 23 24 24 21 19 17
0 0 0 0 0 0 0 0 0 0 0 0 0 0 1 2 2 4 9 15 21 23 26 33 39 43 47 50 52 55 57 57 53 48 42 38 36 29 23 23 24 25 23 20
0 0 0 0 0 0 0 0 0 0 0 0 0 1 1 2 2 4 9 16 21 25 28 33 37 40 45 50 51 52 55 56 54 48 42 39 37 32 26 25 27 29 29 29
0 0 0 0 0 0 0 0 0 0 0 0 1 2 3 3 3 7 12 15 21 27 33 38 41 42 45 49 51 54 56 56 51 46 42 39 37 35 32 31 32 34 37 39
0 0 0 0 0 0 0 0 0 0 0 0 1 3 4 5 8 13 16 17 22 29 36 43 46 46 49 52 55 59 60 56 51 46 42 38 38 39 38 36 36 38 41 44
0 0 0 0 0 0 0 0 0 0 0 0 1 5 7 8 13 19 21 22 24 29 37 46 48 50 54 58 60 62 61 57 54 49 44 41 43 43 41 38 37 39 43 45
0 0 0 0 0 1 1 0 0 0 0 0 2 6 10 12 16 22 26 28 28 30 36 44 47 50 55 59 60 61 60 57 56 53 49 48 50 48 44 40 40 43 45 45
0 0 0 0 0 1 1 1 0 0 0 0 2 7 12 14 18 24 29 33 34 33 35 41 45 49 55 56 56 58 58 57 56 54 52 52 54 53 50 47 47 48 47 45
1 2 1 0 0 0 0 1 1 1 2 2 5 10 13 17 23 29 33 36 38 36 36 39 41 47 53 55 52 52 54 56 56 53 52 52 53 54 53 52 51 50 48 46
3 4 2 0 0 0 0 1 2 2 4 7 10 13 15 21 29 34 36 39 42 42 40 39 38 43 49 51 47 45 48 52 54 52 51 51 51 52 52 50 49 49 47 45
4 4 2 0 0 0 1 2 4 5 8 13 16 17 18 24 31 36 40 45 48 47 43 39 36 39 47 49 46 44 46 50 50 50 51 51 50 50 49 47 47 46 43 40
3 3 2 0 0 1 3 4 4 6 12 21 25 25 26 30 36 40 43 49 50 47 42 40 37 40 46 50 49 47 47 48 48 47 49 50 49 47 46 45 44 42 38 34
1 1 1 0 1 4 6 8 10 14 23 30 34 35 38 41 43 44 46 50 50 45 41 40 41 43 45 45 47 48 47 47 47 47 47 47 46 43 42 42 41 38 34 32
1 2 3 3 4 10 16 19 23 31 35 36 36 38 41 42 42 43 46 48 47 43 41 40 42 43 40 38 42 44 44 45 47 47 46 45 43 39 37 37 36 34 31 28
5 7 8 9 12 18 24 28 33 37 37 34 33 33 35 36 36 39 43 44 42 42 41 38 36 36 34 33 36 40 41 44 46 45 43 42 41 38 35 33 31 28 25 23
9 11 12 15 17 19 23 26 29 29 28 28 27 27 29 31 32 36 40 41 40 41 40 36 31 30 31 32 34 36 40 44 45 43 41 40 39 35 31 27 23 19 18 18
11 12 14 16 15 15 16 18 20 22 21 22 24 25 26 28 29 32 36 38 38 38 37 34 31 30 30 32 35 36 38 43 42 39 38 38 35 29 23 17 12 10 9 10
11 13 16 16 14 12 13 14 15 17 19 20 22 25 26 25 27 30 33 35 35 35 33 32 32 31 31 33 35 35 38 41 39 35 35 35 30 23 17 10 6 4 3 3

GEFSCGP_con_probscp_210.txt.gz
Probability
0 0 0 0 0 0 0 0 0 0 1 1 1 0 1 4 11 18 23 27 29 25 23 25 28 31 34 31 26 24 24 23 19 14 11 7 4 3 4 6 6 5 4 4
0 0 0 0 0 0 0 0 0 0 0 0 0 0 2 5 11 17 23 28 30 29 29 31 34 35 36 34 29 27 26 24 21 16 11 7 3 2 3 5 7 7 6 5
0 0 0 0 0 0 0 0 0 0 0 0 0 1 3 7 11 15 20 27 32 33 36 40 42 42 39 35 32 31 30 29 27 21 13 8 5 3 3 6 8 9 9 8
0 0 0 0 0 0 0 0 0 0 0 0 0 0 3 8 12 14 17 25 33 37 40 44 47 47 43 36 34 34 34 34 34 29 20 12 8 5 4 6 9 10 10 10
0 0 0 0 0 0 0 0 0 0 0 0 0 0 2 7 13 15 17 25 34 40 43 47 50 52 47 38 35 36 36 34 34 31 23 15 9 5 4 5 8 9 9 9
0 0 0 0 0 0 0 0 0 0 0 0 0 0 1 5 11 16 20 26 35 43 47 48 52 54 51 44 38 37 36 33 31 28 21 15 10 5 4 5 7 9 9 8
0 0 0 0 0 0 0 0 0 0 0 0 0 0 1 3 9 16 23 28 36 45 48 48 51 53 54 51 46 43 38 32 29 26 20 16 11 6 4 5 7 9 9 7
0 0 0 0 0 0 0 0 0 0 0 0 0 0 1 3 9 19 27 32 38 46 49 49 50 52 53 53 51 48 41 35 31 26 21 18 14 9 5 5 6 7 7 7
0 0 0 0 0 0 0 0 0 0 0 0 0 0 1 6 15 23 29 34 40 47 50 49 49 49 49 47 46 46 43 39 34 28 23 21 17 12 8 6 5 6 6 6
0 0 0 0 0 0 0 0 0 0 0 0 0 0 1 7 17 23 26 30 36 42 45 46 47 46 44 41 40 42 43 42 37 31 27 23 19 14 10 8 6 5 5 6
0 0 0 0 0 0 0 0 0 0 0 0 0 0 1 5 13 19 22 25 30 35 39 42 45 44 41 40 41 43 45 45 41 36 31 25 19 14 10 8 6 4 5 6
0 0 0 0 0 0 0 0 0 0 0 0 0 1 2 6 11 17 21 25 28 32 35 38 42 42 41 41 44 47 48 48 46 42 36 27 19 13 11 9 7 5 5 6
0 0 0 0 0 0 0 1 1 1 0 0 0 1 4 9 14 18 22 27 31 32 33 36 40 40 38 40 44 47 48 48 48 44 39 30 21 15 13 11 9 7 6 7
0 0 0 0 0 0 0 1 2 1 1 1 1 2 7 12 18 22 24 28 30 31 33 36 38 36 35 38 42 45 44 44 45 44 39 31 24 19 17 15 12 9 8 8
0 0 0 0 0 0 0 1 2 2 1 1 2 5 9 15 21 25 28 29 29 30 34 37 36 35 36 39 42 43 40 38 40 42 40 33 26 23 21 18 16 13 11 11
0 0 0 0 0 0 0 1 2 2 1 1 3 6 12 18 24 27 30 31 29 29 33 35 34 35 38 41 43 41 36 33 36 39 40 35 29 25 24 22 19 16 15 16
0 0 0 0 0 0 0 1 3 3 3 3 5 9 16 24 27 28 29 29 28 27 29 30 31 32 35 38 39 36 31 29 31 34 35 34 32 30 29 26 22 20 20 21
0 0 0 0 0 0 1 2 2 3 5 8 11 15 22 28 30 29 27 27 25 22 23 25 25 25 27 29 31 32 29 27 27 27 28 30 31 32 31 28 25 24 25 25
0 0 0 0 0 1 2 2 3 4 8 12 16 20 24 28 29 28 28 27 26 23 21 20 21 21 22 23 25 30 32 30 28 26 26 26 28 30 30 29 28 27 26 24
0 0 0 0 0 1 3 5 5 6 10 14 17 19 22 25 26 25 25 27 28 27 23 20 20 21 21 21 24 29 33 34 32 30 27 25 27 29 29 28 28 26 22 18
0 0 0 0 0 0 3 6 7 8 12 15 17 19 21 22 23 22 24 29 31 30 27 23 22 20 19 20 22 25 29 31 30 29 26 26 28 29 28 27 25 22 18 15
0 0 0 0 0 0 2 5 6 9 14 18 20 21 23 25 25 26 28 32 33 31 28 25 21 17 16 17 18 19 22 23 22 21 22 24 26 27 26 25 23 20 17 15
0 0 0 1 1 0 1 3 5 9 15 19 21 22 24 27 27 28 29 30 31 30 27 23 19 15 13 13 15 16 17 17 16 16 16 18 21 23 23 22 21 20 17 16
1 1 1 2 2 1 2 4 7 11 15 18 19 19 20 22 23 23 24 25 27 27 25 20 17 15 12 11 13 15 15 15 14 13 13 14 17 18 19 18 17 17 16 15
1 1 2 3 3 3 4 5 8 13 16 17 17 15 14 16 17 17 19 22 24 25 23 20 18 16 13 12 13 14 16 15 13 11 12 13 14 14 14 12 10 10 10 10
1 1 2 4 4 4 4 4 8 12 16 18 17 14 12 13 15 15 16 19 22 22 20 19 20 18 15 14 13 14 16 15 13 11 12 13 13 12 10 7 5 4 4 4

GEFSCGP_con_probscp_216.txt.gz
Probability
0 0 0 0 0 0 0 0 0 0 0 0 0 1 1 1 2 3 3 3 3 3 4 7 8 9 8 6 5 4 2 1 1 1 1 2 2 1 0 0 0 0 0 1
0 0 0 0 0 0 0 0 0 0 0 0 1 1 1 1 1 2 2 2 3 3 4 7 8 9 10 9 8 7 5 2 1 0 0 1 1 0 0 0 0 0 1 2
0 0 0 0 0 0 0 0 0 0 0 0 1 1 1 1 1 1 1 1 2 3 5 7 8 9 10 11 12 11 10 6 2 1 1 1 0 0 0 0 0 0 1 2
0 0 0 0 0 0 0 0 0 0 0 0 1 1 1 2 2 2 1 1 3 4 7 9 8 6 8 11 13 14 14 12 8 5 5 3 1 1 1 0 0 0 1 2
0 0 0 0 0 0 0 0 0 0 0 0 0 0 0 1 2 2 3 4 5 7 10 11 8 6 8 11 15 16 17 17 15 13 12 9 4 1 1 1 1 1 2 3
0 0 0 0 0 0 0 0 0 0 0 0 0 0 0 0 1 1 3 7 11 13 13 12 10 9 11 14 16 17 18 20 20 18 16 13 7 2 1 2 2 3 3 3
0 0 0 0 0 0 0 0 0 0 0 0 0 0 0 0 0 1 4 11 17 19 17 15 15 14 15 17 18 18 19 21 21 19 17 14 8 3 1 2 3 3 3 3
0 0 0 0 0 0 0 0 0 0 0 0 0 0 0 1 2 5 8 15 20 22 22 21 20 19 18 18 18 19 22 23 20 18 16 13 9 5 3 3 3 3 3 3
0 0 0 0 0 0 0 0 0 0 0 0 0 0 0 2 6 9 12 15 18 20 23 24 23 21 19 17 17 19 24 24 20 16 15 13 10 8 6 4 3 3 3 3
0 0 0 0 0 0 0 0 0 0 0 0 0 0 0 2 6 10 11 11 13 17 21 24 24 21 18 17 18 20 23 24 21 17 16 15 12 9 8 6 4 3 3 3
0 0 0 0 0 0 0 0 0 0 0 0 0 0 0 1 5 8 9 7 9 15 20 23 23 21 19 19 20 21 22 23 21 20 19 17 13 10 8 6 5 4 3 3
0 0 0 0 0 0 0 0 0 0 0 0 0 0 1 3 6 8 8 8 10 15 20 22 22 22 23 23 21 20 22 22 21 22 22 20 16 13 10 8 6 5 4 3
0 0 0 0 0 0 0 0 0 0 0 0 0 1 3 6 8 9 10 11 15 18 21 22 22 26 27 24 21 20 20 21 21 22 23 22 20 18 15 12 9 6 4 3
0 0 0 0 0 0 0 0 0 0 0 0 0 1 3 5 8 9 11 15 19 22 23 22 24 26 25 21 18 20 22 23 22 22 22 22 22 20 18 15 11 7 4 4
0 0 0 0 0 1 1 1 1 0 0 0 0 0 1 2 5 8 11 16 21 23 23 24 24 23 19 16 15 18 21 23 24 23 22 23 22 21 19 16 11 6 4 4
0 0 0 0 0 2 3 3 2 1 0 0 0 0 0 2 6 11 14 17 21 23 23 25 25 21 16 14 14 18 21 22 22 22 22 22 21 21 20 17 11 7 5 5
0 0 0 0 0 1 3 3 2 2 1 0 0 1 1 4 10 15 17 18 20 21 22 24 24 19 15 14 15 20 25 24 22 21 21 21 20 21 20 16 12 10 9 9
0 0 0 0 0 1 1 1 1 1 1 0 1 2 3 6 12 16 17 17 19 19 20 19 18 15 13 13 15 21 25 24 22 21 21 21 20 19 17 16 14 13 13 13
0 0 0 0 0 1 0 0 0 0 0 0 1 2 4 8 12 14 14 15 17 18 17 15 12 12 11 12 14 18 22 23 22 21 22 21 19 16 15 16 15 15 15 16
0 0 0 0 0 0 0 0 0 0 0 0 0 2 4 7 10 11 13 15 18 18 14 10 9 9 10 11 13 16 20 21 21 21 22 19 15 14 14 15 15 14 13 14
0 0 0 0 0 0 0 0 0 0 0 0 1 3 7 7 8 11 14 18 21 19 12 8 8 8 8 10 11 14 16 18 18 18 18 15 12 11 12 13 13 13 12 12
0 0 0 0 0 0 0 0 0 0 0 0 1 4 8 9 9 11 15 19 22 20 14 9 8 7 7 9 10 10 11 13 13 11 11 12 11 10 10 12 13 13 12 11
0 0 0 0 0 0 0 0 0 0 1 0 0 3 7 9 10 11 13 16 20 20 15 11 9 7 7 8 9 8 7 8 9 8 8 10 12 12 12 12 13 14 13 12
1 0 0 0 0 1 1 1 0 0 1 1 1 3 5 7 8 10 12 14 17 19 17 12 9 8 8 9 9 7 5 6 7 7 7 10 13 14 12 12 12 13 13 12
2 1 1 1 2 3 3 1 0 1 2 2 3 5 6 6 6 9 11 13 15 17 15 12 9 9 9 10 10 7 6 6 6 7 8 9 10 11 11 10 9 9 9 9
3 2 2 2 3 3 3 1 0 1 3 3 4 6 7 6 5 8 10 12 13 14 12 10 8 9 10 11 10 8 7 6 6 7 8 7 7 8 9 9 7 5 4 4

GEFSCGP_con_probscp_222.txt.gz
Probability
0 0 0 0 0 0 0 0 0 0 0 0 0 0 0 0 0 0 1 0 1 2 3 5 6 6 8 12 18 20 20 19 18 17 16 14 11 7 4 5 7 6 4 4
0 0 0 0 0 0 0 0 0 0 0 0 0 0 0 0 0 1 2 1 1 3 6 8 9 9 10 13 19 22 22 22 20 19 17 15 12 8 5 6 9 9 7 6
0 0 0 0 0 0 0 0 0 0 0 0 0 0 0 1 2 3 4 4 4 5 8 10 12 12 12 14 19 23 25 25 25 23 22 19 16 11 8 8 10 10 9 8
0 0 0 0 0 0 0 0 0 0 0 0 0 0 0 2 4 4 5 8 8 8 10 12 14 16 15 14 17 22 25 26 26 27 25 23 20 16 12 10 10 10 9 8
0 0 0 0 0 0 0 0 0 0 0 0 0 0 0 2 4 5 6 9 11 11 12 13 15 17 16 14 14 18 22 23 25 27 26 24 20 18 16 13 12 11 9 7
0 0 0 0 0 0 0 0 0 0 0 0 0 0 0 1 3 5 7 8 10 12 13 15 16 16 15 13 13 16 19 21 22 25 26 24 20 19 18 17 16 13 10 8
0 0 0 0 0 0 0 0 0 0 0 0 0 1 1 1 2 6 8 8 8 11 14 18 19 17 15 13 13 17 20 20 19 22 24 23 20 19 18 17 16 14 10 8
0 0 0 0 0 0 0 0 0 0 0 0 0 1 1 1 3 6 8 8 8 10 15 19 20 20 17 14 16 19 21 20 19 19 20 20 19 17 16 15 13 12 10 8
0 0 0 0 0 0 0 0 0 0 0 0 0 0 1 2 3 7 8 7 8 11 15 19 20 20 18 17 19 20 20 21 20 19 18 18 18 16 14 13 12 9 8 6
0 0 0 0 0 0 0 0 0 0 0 0 0 0 1 2 4 7 8 7 9 12 15 19 21 21 20 20 22 21 20 20 20 20 18 15 15 14 13 13 13 10 7 6
0 0 0 0 0 0 0 0 0 0 0 0 0 0 1 3 6 9 10 10 10 13 16 19 22 23 23 23 23 22 21 20 19 20 18 13 11 13 15 16 16 14 12 11
0 0 0 0 0 0 0 0 0 0 0 0 0 1 2 5 8 13 16 16 15 16 17 20 23 26 27 27 26 24 24 24 21 20 18 14 12 14 17 19 18 17 16 14
0 0 0 0 0 0 0 0 0 0 0 0 0 1 4 7 11 16 20 23 24 23 21 23 27 30 33 33 31 29 29 29 26 23 20 18 17 18 20 20 19 18 17 15
0 0 0 0 0 0 0 0 0 1 1 1 1 3 6 10 15 19 24 29 31 29 27 27 30 33 36 35 33 32 33 33 30 26 23 21 20 22 24 23 20 19 18 17
0 0 0 0 0 0 0 0 0 1 2 2 3 4 8 12 16 20 26 32 35 32 30 30 32 33 33 32 32 33 36 36 33 29 25 21 20 22 25 25 23 22 20 20
0 0 0 0 0 0 0 0 0 1 2 3 4 6 9 12 15 20 25 32 36 34 30 30 32 31 29 30 31 32 34 35 33 31 26 21 19 21 23 24 23 21 19 18
0 0 0 0 0 0 0 0 0 0 1 3 5 7 9 10 14 20 25 32 37 35 31 30 32 32 31 31 31 32 33 33 32 30 27 24 22 22 22 21 18 16 15 16
1 0 0 0 0 0 0 0 0 0 1 3 6 8 9 10 14 20 27 36 40 38 35 33 33 34 35 34 33 33 32 30 29 27 26 25 25 23 21 17 14 13 14 17
1 0 0 0 0 0 0 0 0 0 0 3 7 10 10 10 12 17 26 36 40 40 39 37 35 36 36 35 33 32 30 27 24 23 23 25 24 23 20 16 13 14 16 18
1 0 0 0 0 0 0 0 0 0 0 2 6 10 12 12 12 17 26 34 38 39 37 36 34 34 32 31 30 28 25 24 22 21 22 24 23 20 18 16 15 17 18 19
0 0 0 0 0 0 0 0 1 3 3 3 6 11 14 15 17 23 29 34 37 35 32 31 32 31 27 24 23 22 21 21 22 22 24 24 20 16 15 16 17 18 19 20
1 0 0 0 0 0 1 2 5 8 8 7 9 14 16 17 18 23 29 33 34 31 28 27 30 30 25 21 19 19 20 21 23 25 26 23 18 15 15 16 16 17 18 19
3 2 1 1 1 2 4 7 10 11 12 12 14 16 15 14 15 20 26 30 30 28 26 26 29 30 26 22 21 21 22 23 24 27 28 24 19 16 17 17 16 15 16 17
4 4 3 3 5 8 10 12 13 13 14 16 15 13 12 13 16 22 27 28 27 26 25 27 28 28 26 23 22 23 22 22 24 27 28 25 20 18 19 19 17 16 15 15
5 4 4 6 11 14 15 14 14 14 14 14 12 8 9 16 20 24 26 27 25 23 24 26 26 25 25 24 23 22 21 20 22 25 25 23 20 19 20 19 15 13 12 12
5 4 4 7 13 16 16 15 14 14 12 11 9 7 9 17 22 23 25 24 23 22 21 23 24 24 23 24 23 21 19 19 21 22 21 20 20 20 20 17 12 10 9 7

GEFSCGP_con_probscp_228.txt.gz
Probability
0 0 0 0 0 0 0 0 0 0 0 0 1 3 4 5 6 9 14 17 22 28 32 32 31 33 42 51 50 45 42 40 36 29 25 24 24 25 26 27 25 18 14 14
0 0 0 0 0 0 0 0 0 0 0 0 2 4 6 8 9 12 16 19 21 27 35 38 37 38 45 54 55 50 47 43 39 32 26 26 26 25 24 25 25 20 16 16
0 0 0 0 0 0 0 0 0 0 0 0 1 4 8 10 11 14 18 20 22 28 39 45 44 44 48 55 58 56 53 49 44 36 28 27 30 27 24 26 27 23 19 17
0 0 0 0 0 0 0 0 0 0 0 0 0 3 8 10 12 16 21 23 24 31 42 46 46 46 49 55 59 60 58 53 47 40 32 28 30 29 27 28 29 26 21 17
0 0 0 0 0 0 0 0 0 0 0 0 0 3 8 11 14 19 24 25 26 33 43 46 45 47 50 54 59 62 61 55 47 39 34 29 27 27 27 27 28 27 23 19
0 0 0 0 0 0 0 0 0 0 0 0 0 2 7 13 17 22 25 25 26 33 41 45 45 46 49 52 57 62 62 57 46 36 32 28 25 24 26 26 26 25 22 20
0 0 0 0 0 0 0 0 0 0 0 0 0 2 7 13 19 24 26 26 28 32 39 43 44 47 50 52 58 64 65 58 46 36 30 27 23 23 25 27 24 20 18 18
0 0 0 0 0 0 0 0 0 0 0 0 0 2 8 13 18 23 26 28 29 32 36 40 43 48 51 53 58 65 66 58 46 37 31 27 24 21 23 25 22 16 15 16
0 0 0 0 0 0 0 0 0 0 0 0 1 4 9 13 15 18 24 28 30 32 34 38 42 47 50 52 56 63 65 59 46 37 33 31 28 24 23 24 23 18 17 17
0 0 0 0 0 0 0 0 0 0 0 0 1 5 10 14 14 17 24 29 32 33 35 39 44 47 49 50 52 60 64 58 48 40 36 35 33 31 28 27 26 24 23 23
0 0 0 0 0 0 0 0 0 0 0 0 2 5 10 15 17 20 25 29 30 32 36 40 45 49 49 47 47 55 60 56 52 48 43 39 37 36 34 32 29 28 28 28
0 0 0 0 0 0 0 0 0 0 0 0 2 6 10 14 17 22 26 28 28 31 35 39 46 51 51 47 47 51 54 54 54 53 48 42 39 38 38 35 32 30 29 29
0 0 0 0 0 0 0 0 0 0 0 0 2 7 11 14 18 23 27 28 31 34 37 44 53 57 57 55 53 51 50 51 52 53 49 44 40 39 38 37 36 33 32 30
0 0 0 0 0 0 0 0 0 0 0 0 2 8 13 16 21 26 29 31 36 40 46 56 63 64 63 64 61 55 51 50 51 52 50 47 44 41 38 38 38 36 33 30
0 0 0 0 0 0 0 0 0 0 0 1 4 9 16 20 25 30 33 36 41 47 53 62 68 68 66 66 64 59 55 53 53 52 50 49 47 43 39 39 37 35 33 29
0 0 0 0 0 0 0 0 0 0 0 1 5 12 19 25 30 35 39 41 43 47 53 61 67 68 67 65 64 61 57 55 52 50 48 47 46 43 39 37 35 34 32 29
1 1 1 0 0 0 0 0 0 0 0 3 8 13 21 28 34 38 43 44 44 46 53 61 65 66 64 63 60 56 52 50 49 46 45 46 46 45 39 33 33 33 31 29
2 3 3 1 0 0 0 0 0 1 3 6 10 14 21 31 36 39 42 45 47 51 56 60 61 59 59 57 53 46 43 44 43 43 43 45 46 45 39 33 31 31 30 29
4 5 4 1 0 0 0 0 0 2 7 11 13 15 22 31 36 38 43 48 52 56 58 56 54 54 55 54 49 41 37 38 39 40 42 43 42 41 38 34 31 30 30 31
3 5 4 2 1 0 0 0 0 4 11 16 17 19 23 30 37 43 49 52 54 57 57 54 52 52 55 55 51 45 39 37 37 39 41 41 39 37 34 33 32 31 30 30
2 4 5 4 3 2 2 3 7 14 22 23 23 27 30 34 41 49 53 53 54 54 53 52 51 52 54 56 55 50 44 40 39 39 39 38 37 33 29 29 31 30 28 26
3 4 7 8 9 11 14 15 22 32 35 31 31 37 40 39 40 46 51 51 49 46 44 46 49 49 50 52 51 48 44 40 37 36 33 31 30 30 27 27 28 27 23 21
7 10 15 18 22 28 30 31 35 39 36 32 34 39 40 37 36 41 49 49 45 41 39 41 44 44 44 44 43 40 37 34 31 30 28 25 25 26 28 28 27 24 21 19
11 16 24 31 35 36 36 35 34 33 30 27 29 31 31 31 34 40 47 50 48 44 42 42 42 41 39 37 35 33 30 28 27 25 23 22 23 25 27 26 23 20 18 17
13 19 30 37 39 36 34 31 29 27 27 25 23 22 23 27 34 41 48 51 50 46 44 45 45 42 37 32 30 30 29 27 25 22 20 20 21 23 22 20 15 13 12 11
14 20 30 37 39 38 34 31 28 25 25 24 21 17 18 24 34 42 49 52 49 45 44 47 48 44 37 31 29 29 29 27 23 20 19 20 20 21 20 16 11 8 8 7

GEFSCGP_con_probscp_234.txt.gz
Probability
0 0 0 0 0 0 0 0 0 0 0 0 2 5 9 11 11 10 10 11 12 12 12 13 17 20 19 17 18 18 17 15 14 11 8 5 5 5 7 9 9 8 7 6
0 0 0 0 0 0 0 0 0 0 0 1 3 6 9 12 13 11 10 13 15 16 17 18 21 23 22 21 20 19 17 16 14 12 8 6 5 5 6 7 7 7 7 7
0 0 0 0 0 0 0 0 0 0 0 1 3 6 9 12 14 14 14 15 17 21 24 26 28 29 28 26 22 19 16 15 14 12 8 5 4 4 4 4 5 6 8 8
0 0 0 0 0 0 0 0 0 0 0 1 2 4 7 12 15 18 18 19 19 22 26 29 30 33 34 30 25 19 16 15 14 12 9 6 4 3 3 3 4 6 7 9
0 0 0 0 0 0 0 0 0 0 0 0 1 2 5 10 16 19 21 22 23 25 28 28 28 32 37 35 29 23 18 16 15 14 12 8 5 3 3 4 4 4 6 8
0 0 0 0 0 0 0 0 0 0 0 0 0 1 2 7 14 20 23 26 29 30 31 30 28 31 36 37 33 27 20 16 15 15 13 10 7 4 3 3 4 3 5 7
0 0 0 0 0 0 0 0 0 0 0 0 0 1 2 6 13 21 26 31 35 36 35 34 31 32 36 38 38 33 25 19 15 14 13 11 8 5 4 3 3 3 4 5
0 0 0 0 0 0 0 0 0 0 0 0 1 3 4 7 14 22 29 35 39 40 38 37 35 35 37 39 40 38 31 24 19 16 14 11 9 7 4 3 4 3 3 3
0 0 0 0 0 0 0 0 0 0 0 0 2 3 4 7 14 24 32 37 38 38 39 39 39 37 35 33 35 36 33 28 23 19 15 12 10 8 5 3 4 4 3 3
0 0 0 0 0 0 0 0 0 0 0 0 1 1 2 5 13 24 33 37 34 32 35 39 40 36 30 26 27 31 31 29 25 22 18 14 11 9 6 4 4 5 4 4
0 0 0 0 0 0 0 0 0 0 0 0 0 0 1 6 13 20 28 32 29 28 30 34 36 33 28 25 25 27 29 29 26 24 22 18 13 10 9 8 7 7 6 6
0 0 0 0 0 0 0 0 0 0 0 0 0 1 3 9 15 18 22 25 26 26 26 28 32 33 30 28 27 28 29 30 29 27 24 20 16 14 13 12 10 9 9 9
0 0 0 0 0 0 0 0 0 0 0 0 1 2 6 13 18 22 24 25 26 25 27 30 34 34 31 30 30 30 32 33 32 30 28 24 19 17 16 15 13 12 11 10
0 0 0 0 0 0 0 0 0 0 0 0 1 4 9 15 22 27 31 32 30 30 33 36 35 34 32 31 33 35 36 36 34 34 34 29 23 19 17 17 16 14 12 11
0 0 0 0 0 0 0 0 0 0 0 0 1 5 10 16 25 33 37 37 37 38 40 38 35 32 31 32 32 35 38 37 35 35 36 33 27 23 21 20 17 15 14 13
0 0 0 0 0 0 0 0 0 0 0 0 2 4 10 19 29 37 40 39 39 41 41 37 33 31 31 30 29 30 34 36 34 33 34 34 32 30 27 23 18 16 15 16
0 0 0 0 0 0 0 0 0 0 0 0 1 5 14 25 33 39 41 39 38 38 38 35 31 29 29 28 26 24 26 31 33 31 31 32 33 33 32 28 22 18 17 17
0 0 0 0 0 0 0 0 0 1 1 1 2 8 20 30 35 39 41 39 37 36 34 31 29 28 28 27 24 23 24 28 30 30 29 28 29 31 32 30 26 22 18 16
0 0 0 0 0 0 0 0 2 4 4 4 7 14 24 31 36 39 40 39 36 33 30 28 28 29 29 27 25 25 25 25 26 27 27 27 28 29 30 28 26 24 20 17
0 0 0 0 0 0 1 2 5 8 8 8 12 20 25 30 33 35 39 39 35 30 28 27 28 30 30 28 26 25 24 23 23 23 25 27 29 29 28 26 25 24 21 17
0 0 0 0 0 0 2 5 8 9 10 11 16 22 25 27 29 33 39 41 38 33 29 28 29 28 28 26 25 23 21 20 21 22 23 26 28 27 25 24 24 23 20 16
0 0 0 0 0 0 2 5 7 9 13 15 17 22 26 29 31 34 38 40 39 35 32 30 28 25 23 22 21 19 17 17 20 23 24 24 24 22 21 21 22 22 20 18
1 1 2 4 5 5 6 6 7 10 16 19 20 23 28 32 34 36 36 35 34 33 31 29 26 23 21 19 18 16 13 14 18 22 23 21 19 17 17 18 20 21 20 19
3 3 7 12 15 16 15 13 12 13 16 20 22 25 28 30 34 37 36 32 30 29 28 26 23 21 19 17 15 13 12 13 17 20 19 17 15 14 14 15 15 15 15 14
3 4 10 15 17 19 20 19 17 15 16 18 22 25 25 27 31 34 35 32 29 27 25 22 20 18 15 12 11 11 11 12 15 17 17 16 13 11 9 9 8 8 7 7
3 4 8 12 13 15 18 19 17 16 16 17 22 26 25 24 27 30 32 32 29 26 23 20 18 15 11 8 8 9 10 11 14 16 16 15 12 8 6 5 3 3 3 2

GEFSCGP_con_probscp_240.txt.gz
Probability
0 0 0 0 0 0 0 0 0 0 0 1 2 3 4 5 5 4 3 2 1 1 2 3 3 3 4 4 4 3 2 1 1 1 1 2 2 2 1 2 2 2 2 1
0 0 0 0 0 0 0 0 0 0 0 0 1 2 3 4 4 3 3 1 0 1 3 4 4 4 4 4 4 3 1 1 1 1 2 2 2 1 1 1 2 2 2 2
0 0 0 0 0 0 0 0 0 0 0 0 0 0 1 3 3 3 3 1 1 2 4 6 7 7 6 4 3 2 1 2 2 1 2 2 2 2 2 2 2 2 3 3
0 0 0 0 0 0 0 0 0 0 0 0 0 0 1 2 3 3 3 3 3 6 9 10 10 10 9 6 3 2 2 2 2 2 4 4 4 3 3 3 3 3 3 3
0 0 0 0 0 0 0 0 0 0 0 0 0 0 0 1 3 3 3 4 7 11 16 16 12 11 10 8 5 3 2 2 3 4 6 6 5 4 3 3 3 3 3 3
0 0 0 0 0 0 0 0 0 0 0 0 0 0 0 1 2 3 4 5 8 13 19 19 15 12 10 8 6 3 1 2 4 6 7 7 6 4 3 3 2 2 2 2
0 0 0 0 0 0 0 0 0 0 0 0 0 0 0 0 1 3 4 6 8 11 16 19 16 13 11 9 6 3 2 3 5 7 8 8 7 5 4 3 2 1 1 1
0 0 0 0 0 0 0 0 0 0 0 0 0 0 0 0 1 3 6 8 9 11 15 18 18 17 15 11 7 5 5 6 6 8 9 9 8 7 6 5 4 2 1 2
0 0 0 0 0 0 0 0 0 0 0 0 0 0 0 1 3 5 6 8 11 14 16 19 20 19 16 11 7 6 8 9 9 10 10 9 8 8 7 6 6 4 3 4
0 0 0 0 0 0 0 0 0 0 0 0 0 0 0 2 4 5 5 7 10 15 17 18 19 17 14 11 9 9 11 13 12 10 9 8 8 8 7 7 7 6 6 6
0 0 0 0 0 0 0 0 0 0 0 0 0 0 0 2 3 5 5 7 10 14 16 17 16 14 13 13 13 14 16 17 15 11 9 8 8 8 7 7 6 6 7 7
0 0 0 0 0 0 0 0 0 0 0 0 0 0 1 2 3 5 7 9 11 14 16 16 15 13 14 16 17 18 20 19 17 14 12 10 10 10 10 8 7 7 7 7
0 0 0 0 0 0 0 0 0 0 0 0 0 0 1 3 4 6 8 10 12 14 14 14 14 13 13 15 18 19 19 19 18 16 15 13 12 12 12 11 10 9 7 6
0 0 0 0 0 0 0 0 0 0 0 0 0 0 1 3 5 6 8 10 11 12 12 13 14 12 11 13 16 16 16 17 18 17 16 15 13 12 12 12 12 10 7 5
0 0 0 0 0 0 0 0 0 0 0 0 0 0 1 3 5 6 8 10 11 11 11 12 14 14 13 14 15 14 13 16 19 19 18 17 16 14 13 13 14 12 9 6
0 0 0 0 0 0 0 0 0 0 0 0 0 0 2 5 7 8 11 15 16 15 13 13 14 16 17 18 19 17 15 16 19 20 20 20 20 19 17 16 17 15 12 10
0 0 0 0 0 0 0 0 0 0 0 0 0 0 2 7 9 11 14 19 22 21 17 15 15 16 18 21 22 20 17 17 18 19 20 21 21 20 19 19 19 18 15 14
0 0 0 0 0 0 0 0 0 0 0 0 0 0 3 9 14 16 18 22 23 21 18 16 16 15 17 20 20 18 16 16 16 17 20 20 19 18 17 19 20 19 17 16
0 0 0 0 0 0 0 0 0 0 0 0 0 1 5 13 17 18 20 21 19 16 15 15 16 16 16 17 16 14 14 14 14 15 18 20 20 18 18 19 20 18 17 17
0 0 0 0 0 0 0 0 0 0 0 0 0 3 9 14 14 14 17 19 18 15 13 14 15 16 15 13 12 11 11 11 12 14 17 21 21 20 21 21 20 18 17 17
0 0 0 0 0 0 0 0 0 0 0 0 1 5 11 12 10 12 15 18 18 17 15 16 16 16 13 10 8 8 8 8 11 14 18 22 22 21 21 21 20 19 17 16
0 0 0 0 0 0 0 0 0 0 0 0 2 6 10 11 12 14 16 18 17 16 18 19 18 16 13 9 6 5 5 7 11 16 20 21 20 19 19 20 20 19 16 15
0 0 0 0 0 0 0 0 0 0 0 0 3 7 11 14 16 17 18 18 17 18 20 21 19 17 13 10 8 6 5 6 11 16 19 18 15 15 17 19 20 19 17 16
0 0 1 1 0 0 0 0 0 1 1 3 6 9 13 16 17 18 19 19 19 19 22 22 20 18 15 11 9 7 6 7 10 14 16 15 13 12 14 17 18 18 17 16
0 1 2 2 1 0 0 0 1 3 5 7 10 14 17 20 19 18 19 19 19 20 21 21 20 19 16 12 8 7 8 9 10 11 12 13 11 10 11 12 12 12 11 10
0 1 2 2 1 0 0 1 2 5 8 10 13 17 21 23 21 19 19 17 18 20 19 19 19 18 15 12 9 8 10 10 10 11 11 10 9 9 8 8 6 5 5 4

GEFSCGP_con_probscp_246.txt.gz
Probability
0 0 0 0 0 0 0 0 0 0 0 0 0 1 1 1 2 2 1 1 5 8 10 9 8 6 5 5 6 6 6 7 9 9 8 6 6 6 6 5 5 4 4 3
0 0 0 0 0 0 0 0 0 0 0 0 0 0 0 1 2 3 2 2 5 8 9 10 9 8 8 9 10 10 10 11 11 10 8 6 6 6 6 5 3 4 4 4
0 0 0 0 0 0 0 0 0 0 0 0 0 0 0 1 2 3 3 3 4 7 9 9 10 11 11 12 13 12 14 16 14 11 8 6 7 7 7 5 4 4 5 6
0 0 0 0 0 0 0 0 0 0 0 0 0 0 0 0 1 3 5 6 6 6 7 8 9 11 11 11 11 14 18 19 17 13 9 8 8 8 8 7 7 7 7 7
0 0 0 0 0 0 0 0 0 0 0 0 0 0 0 0 1 2 5 8 9 7 6 7 9 10 11 10 11 16 20 20 18 16 13 11 10 9 8 9 9 8 7 6
0 0 0 0 0 0 0 0 0 0 0 0 0 0 1 1 1 2 4 7 9 9 8 9 10 11 12 12 12 16 20 20 18 16 15 15 13 11 9 9 9 8 6 5
0 0 0 0 0 0 0 0 0 0 0 0 0 0 1 2 2 2 4 5 7 9 11 12 13 15 15 14 15 17 18 18 15 14 15 16 15 11 10 10 10 8 5 4
0 0 0 0 0 0 0 0 0 0 0 0 0 0 1 1 2 3 3 4 5 8 12 14 16 18 18 16 17 17 15 13 11 10 13 15 14 12 11 11 11 9 7 6
0 0 0 0 0 0 0 0 0 0 0 0 0 0 0 1 2 3 4 4 6 8 10 13 16 19 19 18 18 18 15 12 10 9 11 14 14 14 14 14 13 11 9 9
0 0 0 0 0 0 0 0 0 0 0 0 0 0 0 1 3 5 6 6 8 9 10 12 15 18 19 20 20 19 18 15 12 10 11 13 13 14 14 14 13 11 9 9
0 0 0 0 0 0 0 0 0 0 0 0 0 0 0 2 5 9 10 10 10 11 11 13 15 18 22 24 24 22 20 18 15 12 12 12 11 11 11 10 10 9 9 8
0 0 0 0 0 0 0 0 0 0 0 0 0 0 1 3 7 11 14 13 12 12 13 16 21 24 27 29 27 25 22 19 16 13 12 11 9 8 7 7 7 8 8 7
0 0 0 0 0 0 0 0 0 0 0 0 0 0 1 3 6 10 13 13 13 15 16 20 26 30 32 31 28 26 23 19 17 15 14 13 11 9 9 8 8 8 7 6
0 0 0 0 0 0 0 0 0 0 0 0 0 0 0 1 4 8 12 13 15 18 21 25 29 33 33 30 28 26 24 21 20 20 18 17 16 15 14 13 13 11 8 6
0 0 0 0 0 0 0 0 0 0 0 0 0 0 0 2 5 10 14 16 18 22 26 29 32 34 34 32 29 27 25 24 24 25 23 22 22 21 21 20 19 17 14 11
0 0 0 0 0 0 0 0 0 0 0 0 0 0 1 4 9 14 18 20 22 25 28 31 33 36 38 37 34 31 28 26 26 25 24 23 23 23 23 23 24 23 20 17
0 0 0 0 0 0 0 0 0 0 0 0 0 0 2 6 12 17 21 23 27 29 31 31 33 36 39 41 39 34 30 28 26 24 20 19 20 20 20 20 22 24 24 23
0 0 0 0 0 0 0 0 0 0 0 0 0 1 3 7 11 16 23 28 31 33 33 32 32 34 37 41 41 36 31 30 28 24 19 18 19 19 18 18 20 24 26 27
0 0 0 0 0 0 0 0 0 0 0 0 0 2 4 6 8 15 26 32 34 36 34 32 31 32 35 40 43 38 32 31 30 26 22 21 23 23 22 22 24 26 26 28
0 0 0 0 0 0 0 0 0 0 0 1 3 6 8 7 9 18 29 35 37 39 38 35 33 34 39 45 46 42 35 33 32 30 26 25 26 27 28 29 29 28 27 27
0 0 0 0 0 0 0 0 0 2 3 5 6 9 11 12 15 24 33 39 42 43 43 40 37 39 44 48 49 46 41 37 34 33 31 28 29 30 31 32 31 29 28 27
0 0 1 1 1 2 3 4 5 8 11 10 8 10 12 14 18 27 36 42 44 44 44 43 40 40 43 44 45 45 43 40 37 36 34 31 31 32 32 31 30 29 29 28
2 2 3 3 4 7 9 11 14 17 19 16 11 11 13 15 19 29 38 43 46 46 46 45 41 37 35 35 36 38 38 38 36 35 34 32 31 31 32 31 29 29 28 27
5 5 6 7 10 13 15 17 21 24 25 21 16 13 14 16 21 30 38 43 46 47 46 45 41 34 30 30 32 34 35 35 33 31 30 29 29 30 32 31 29 27 25 25
8 8 8 11 14 17 19 22 25 29 30 27 22 16 15 18 22 28 36 43 46 45 43 42 39 36 32 31 32 34 34 33 29 27 26 25 26 28 29 28 25 21 20 20
9 9 10 11 14 17 20 24 28 31 33 32 25 19 16 18 22 27 35 42 45 43 40 39 38 37 35 32 31 33 33 30 27 25 23 23 25 27 26 23 18 15 14 13

GEFSCGP_con_probscp_252.txt.gz
Probability
0 0 0 0 0 0 0 0 0 0 0 0 0 0 2 4 5 8 12 14 18 22 24 22 17 15 24 38 44 38 31 27 23 21 19 20 19 16 14 15 16 14 11 10
0 0 0 0 0 0 0 0 0 0 0 0 0 0 2 4 5 8 13 18 21 25 29 28 24 22 28 40 44 39 33 30 27 24 23 21 19 16 15 17 18 16 12 12
0 0 0 0 0 0 0 0 0 0 0 0 0 0 1 4 5 8 13 20 24 28 33 36 35 32 33 38 42 40 40 38 33 29 26 23 20 17 17 19 20 18 15 13
0 0 0 0 0 0 0 0 0 0 0 0 0 0 1 3 6 8 13 19 26 31 35 40 42 40 37 36 38 44 48 46 38 31 27 25 23 20 19 19 20 18 16 15
0 0 0 0 0 0 0 0 0 0 0 0 0 0 1 3 6 9 13 19 27 33 37 42 44 43 40 37 38 45 53 52 44 34 28 26 24 22 20 17 16 16 15 15
0 0 0 0 0 0 0 0 0 0 0 0 0 0 1 3 6 8 12 18 25 32 39 44 46 45 42 38 37 44 53 54 47 39 32 29 27 24 21 18 15 14 14 14
0 0 0 0 0 0 0 0 0 0 0 0 0 1 2 4 8 11 14 16 21 29 38 44 46 47 45 40 40 46 52 52 47 41 37 34 31 26 22 20 18 14 13 13
0 0 0 0 0 0 0 0 0 0 0 0 0 1 4 7 10 14 15 14 18 27 35 40 44 48 48 45 45 51 54 52 46 41 38 37 34 28 24 22 20 15 11 11
0 0 0 0 0 0 0 0 0 0 0 0 0 2 5 9 12 13 13 12 17 25 30 34 39 45 50 49 49 52 54 52 47 41 38 36 32 28 25 22 19 15 11 10
0 0 0 0 0 0 0 0 0 0 0 0 0 2 5 9 12 12 12 13 18 22 25 28 33 41 48 52 52 52 52 51 47 43 38 34 30 27 25 23 20 17 14 14
0 0 0 0 0 0 0 0 0 0 0 0 0 2 6 11 13 13 15 18 21 23 23 26 32 39 46 51 53 53 52 50 47 43 39 35 32 29 26 25 23 19 17 17
0 0 0 0 0 0 0 0 0 0 0 0 0 2 8 13 14 16 21 24 26 26 25 28 35 42 47 52 54 52 50 49 47 43 40 38 35 31 28 27 24 21 19 18
0 0 0 0 0 0 0 0 0 0 0 0 1 3 8 13 15 18 25 29 31 30 30 35 43 49 54 57 57 53 49 48 48 46 44 41 36 31 29 29 27 23 22 22
0 0 0 0 0 0 0 0 0 0 0 0 1 3 8 12 15 20 27 32 32 31 36 45 54 60 62 62 60 56 51 49 49 50 50 45 37 31 30 29 28 27 27 27
0 0 0 0 0 0 0 0 0 0 0 0 1 3 9 13 17 22 28 32 32 33 39 52 62 67 67 64 62 57 52 51 51 50 51 49 41 35 32 30 28 29 29 29
0 0 0 0 0 0 0 0 0 0 0 0 2 6 10 15 19 24 28 32 34 36 43 54 64 69 68 64 61 56 51 51 52 50 49 49 45 40 36 31 29 30 30 29
2 2 2 0 0 0 0 0 0 0 0 1 4 8 12 16 23 27 30 34 38 41 46 55 63 67 66 61 59 55 50 49 51 51 49 46 43 40 37 33 31 31 31 30
3 5 3 0 0 0 0 0 0 0 0 2 6 11 14 17 23 27 31 37 43 46 50 57 61 62 61 60 57 54 52 50 50 50 48 43 40 39 38 36 34 33 33 32
4 5 3 0 0 0 0 0 0 0 1 4 9 13 16 17 20 26 32 38 44 49 54 58 58 57 59 59 57 56 55 53 50 49 47 43 41 40 40 40 39 37 36 35
2 3 2 0 0 0 0 0 0 1 2 5 11 17 19 19 22 28 36 40 44 49 56 58 57 56 59 59 58 59 59 57 53 50 48 46 43 42 41 41 41 40 39 38
1 2 2 1 0 0 0 1 4 9 12 12 13 19 25 27 29 32 38 42 44 47 53 58 59 59 60 59 59 62 62 59 56 51 48 46 44 41 39 40 43 42 40 39
1 3 5 4 4 5 6 8 13 21 25 22 19 21 27 31 32 32 36 42 45 47 52 57 60 61 59 57 59 62 61 59 56 51 47 45 43 40 39 40 42 42 40 39
4 6 9 9 10 11 13 16 21 25 26 24 23 22 26 30 30 32 38 45 48 50 54 57 58 57 54 53 56 59 60 58 55 51 48 46 43 41 40 40 39 38 38 38
6 8 11 13 13 13 15 18 20 19 18 18 20 22 24 28 31 35 43 50 52 54 56 57 56 54 51 50 53 58 60 58 55 51 48 44 42 42 41 40 37 35 34 34
7 7 11 15 16 15 15 17 17 16 15 15 19 22 23 27 33 38 45 51 54 54 55 57 56 54 52 52 53 56 58 57 54 50 45 40 38 39 39 36 32 29 28 27
5 6 9 16 20 20 18 16 16 17 16 16 20 23 23 27 33 38 44 50 53 53 56 58 56 54 54 54 53 54 56 55 52 48 43 37 35 37 36 31 27 23 22 21

GEFSCGP_con_probscp_258.txt.gz
Probability
0 0 0 0 0 0 0 0 0 0 0 0 0 1 5 9 11 12 11 9 7 7 8 11 14 13 13 14 13 11 10 9 8 9 10 9 7 4 1 2 3 4 4 5
0 0 0 0 0 0 0 0 0 0 0 0 0 1 3 7 11 11 10 9 8 8 9 12 13 14 16 17 15 12 11 11 10 10 10 8 7 5 3 2 4 4 5 6
0 0 0 0 0 0 0 0 0 0 0 0 0 0 1 5 8 8 7 8 9 10 11 12 13 16 19 19 18 16 16 15 14 13 11 9 8 6 4 3 4 5 6 6
0 0 0 0 0 0 0 0 0 0 0 0 0 0 1 4 6 6 6 8 11 11 11 12 14 17 20 20 20 21 21 19 17 15 13 11 9 8 5 4 4 6 6 6
0 0 0 0 0 0 0 0 0 0 0 0 0 0 1 3 6 7 9 11 12 12 13 17 19 21 22 22 22 24 24 21 18 14 12 11 10 8 6 5 5 6 6 6
0 0 0 0 0 0 0 0 0 0 0 0 0 0 0 2 6 10 13 15 14 13 16 21 24 25 25 25 26 27 27 23 18 14 11 9 8 8 7 6 6 5 4 4
0 0 0 0 0 0 0 0 0 0 0 0 0 0 0 1 5 11 14 15 16 16 19 24 28 29 29 29 30 31 30 26 20 15 11 9 8 8 7 6 5 4 3 2
0 0 0 0 0 0 0 0 0 0 0 0 0 0 0 2 7 11 13 14 16 19 21 25 30 31 31 32 34 33 31 28 23 18 13 11 10 10 8 5 4 3 2 2
0 0 0 0 0 0 0 0 0 0 0 0 0 0 0 3 8 12 13 14 16 20 24 27 29 29 28 30 34 34 31 28 25 21 17 15 14 12 8 5 4 3 3 2
0 0 0 0 0 1 0 0 0 0 0 0 0 0 0 3 7 12 15 17 19 21 25 28 29 26 25 29 33 34 32 30 27 23 19 16 15 12 9 6 4 4 3 3
0 0 0 0 0 0 0 0 0 0 0 0 0 0 1 4 8 12 16 19 21 22 24 27 29 27 25 28 32 35 34 33 29 23 18 15 13 11 8 6 5 5 4 3
0 0 0 0 0 0 0 0 0 0 0 0 0 1 3 8 12 15 17 19 22 24 25 27 28 28 27 26 29 34 34 33 30 24 17 14 13 12 10 8 6 5 3 3
0 0 0 0 0 0 0 0 0 0 0 0 0 1 5 12 17 18 19 20 24 27 28 29 29 29 27 25 26 29 30 31 29 24 18 15 15 16 14 11 8 6 5 5
0 0 0 0 0 0 0 0 0 0 0 0 0 1 6 13 18 21 21 22 24 27 29 31 31 31 28 26 25 25 27 28 28 24 21 19 19 19 18 15 12 10 8 8
0 0 0 0 0 0 0 0 0 0 0 0 0 1 6 11 17 21 23 23 23 26 30 32 33 34 32 29 28 28 28 29 29 28 26 24 22 22 20 18 15 13 12 11
0 0 0 0 0 0 0 0 0 0 0 0 1 3 7 11 16 21 24 23 22 24 29 32 34 37 37 34 32 33 33 32 32 31 29 28 25 23 21 19 17 14 13 13
0 0 0 0 0 0 0 0 0 1 0 1 3 5 9 13 17 21 24 24 23 24 26 30 33 36 37 34 34 35 34 32 30 29 28 26 25 24 22 20 18 16 15 15
0 0 0 0 0 0 0 0 0 1 1 3 5 7 11 15 19 21 24 25 25 24 25 27 29 31 30 30 31 32 31 29 26 24 23 22 22 23 22 20 19 18 18 19
0 0 0 0 0 0 0 0 1 2 4 5 6 8 13 18 21 20 22 26 26 25 25 26 28 29 28 27 27 27 27 27 26 23 21 18 18 19 20 20 19 20 21 21
0 0 0 0 0 0 1 1 2 4 6 7 8 10 14 18 19 17 19 23 25 26 25 25 28 31 30 29 27 26 26 26 25 24 23 21 18 16 16 18 20 22 24 24
0 0 0 0 0 0 1 1 3 5 6 8 9 12 13 13 12 13 16 20 24 27 26 26 30 32 31 29 30 28 27 27 26 25 25 24 21 18 17 18 21 24 26 27
0 0 0 0 0 0 1 2 2 4 6 7 9 11 11 9 9 11 15 19 23 28 29 29 31 33 29 28 30 29 27 26 26 26 26 25 24 22 21 23 25 25 25 26
0 0 1 1 1 2 2 3 3 5 6 7 8 10 11 10 10 14 18 20 23 28 32 32 34 34 29 27 27 27 26 25 24 24 24 24 24 22 22 25 27 26 25 24
0 1 3 4 4 4 4 5 6 8 8 8 8 11 13 14 15 18 21 23 25 29 33 35 36 34 29 26 25 25 25 24 23 21 21 22 22 20 21 23 25 26 25 23
2 3 5 6 5 5 6 7 9 11 10 8 9 12 14 16 18 21 23 24 25 28 33 36 35 32 28 25 24 24 24 24 23 21 21 21 20 19 18 18 19 21 21 19
3 5 6 6 5 5 7 10 12 12 9 8 10 12 14 16 19 22 23 23 24 28 32 35 33 30 27 25 24 23 23 24 25 23 22 21 20 18 15 14 13 14 14 14

GEFSCGP_con_probscp_264.txt.gz
Probability
0 0 0 0 0 0 0 0 0 0 0 0 1 2 2 2 2 3 3 3 3 2 1 0 0 0 0 0 0 2 4 7 8 8 10 9 7 5 5 4 4 4 5 6
0 0 0 0 0 0 0 0 0 0 0 0 0 1 1 1 1 3 3 3 3 2 1 0 0 0 0 0 2 3 6 8 9 10 11 10 7 5 5 4 4 5 6 6
0 0 0 0 0 0 0 0 0 0 0 0 0 0 0 0 1 2 3 3 3 1 0 0 0 1 1 2 4 5 7 8 9 10 11 10 7 5 5 5 5 6 6 6
0 0 0 0 0 0 0 0 0 0 0 0 0 0 0 0 1 3 5 5 5 3 1 1 1 2 3 3 4 6 7 7 7 8 10 10 7 6 5 5 5 6 5 5
0 0 0 0 0 0 0 0 0 0 0 0 0 0 0 0 1 4 7 8 7 6 5 4 4 4 5 5 6 7 8 6 5 6 7 8 7 6 6 5 4 4 4 4
0 0 0 0 0 0 0 0 0 0 0 0 0 0 0 0 1 4 7 9 8 7 8 7 7 8 8 7 8 8 7 5 4 5 5 5 5 6 5 4 3 3 2 2
0 0 0 0 0 0 0 0 0 0 0 0 0 0 0 0 1 3 5 7 6 6 7 9 10 11 10 9 9 9 6 5 5 4 3 3 4 4 4 3 2 1 1 1
0 0 0 0 0 0 0 0 0 0 0 0 0 0 0 0 1 3 5 6 6 5 6 9 12 13 13 12 11 9 7 7 6 5 3 3 3 4 4 2 1 0 0 0
0 0 0 0 0 0 0 0 0 0 0 0 0 0 0 1 1 3 5 6 5 5 6 8 11 14 16 15 13 11 10 10 9 7 5 4 4 4 4 2 0 0 0 0
0 0 0 0 0 0 0 0 0 0 0 0 0 0 0 0 1 2 4 4 4 4 4 5 7 12 16 17 15 13 13 13 13 10 8 6 4 4 3 1 1 1 1 0
0 0 0 0 0 0 0 0 0 0 0 0 0 0 0 0 1 2 4 4 3 3 3 3 5 9 14 17 16 15 15 16 15 13 11 9 6 4 3 2 2 2 2 1
0 0 0 0 0 0 0 0 0 0 0 0 0 0 0 1 2 4 5 5 4 3 3 4 5 8 13 17 18 18 18 18 17 14 13 12 10 8 6 4 4 4 4 4
0 0 0 0 0 0 0 0 0 0 0 0 0 0 1 3 5 6 7 6 5 4 4 5 5 8 12 16 18 19 19 19 18 16 15 14 13 11 10 8 7 6 6 6
0 0 0 0 0 0 0 0 0 0 0 0 0 0 1 4 7 8 9 7 5 4 4 6 8 10 13 14 16 19 19 19 18 17 16 15 14 12 11 10 9 8 8 7
0 0 0 0 0 0 0 0 0 0 0 0 0 0 1 3 6 9 10 8 6 5 6 8 10 12 14 13 14 16 18 18 17 17 15 15 15 14 13 11 11 10 9 9
0 0 0 0 0 0 0 0 0 0 0 0 0 0 1 3 6 8 10 10 9 8 9 9 10 11 12 11 12 14 16 17 17 15 12 13 15 15 13 13 13 12 11 10
0 0 0 0 0 0 0 0 0 0 0 0 0 1 2 4 7 9 11 12 11 10 10 9 9 10 10 10 11 13 15 16 17 13 9 10 12 13 13 14 15 14 12 11
0 0 0 0 0 0 0 0 0 0 0 0 0 2 4 6 7 8 10 11 10 9 8 7 7 8 10 12 12 13 14 16 16 13 10 10 11 12 13 15 16 15 14 13
0 0 0 0 0 0 0 0 0 0 0 1 2 4 6 6 6 7 8 8 8 7 7 7 7 9 11 13 14 13 14 16 16 14 13 13 15 15 14 14 15 15 15 14
0 0 0 0 0 0 0 0 0 0 0 2 4 5 6 6 6 5 5 5 5 6 8 9 10 10 11 13 13 12 12 13 14 14 15 17 18 18 17 15 14 15 16 16
0 0 0 0 0 0 0 0 0 0 0 2 4 4 4 4 5 4 3 3 5 7 8 9 9 10 11 12 11 10 10 11 12 13 15 18 19 19 19 16 14 14 15 15
0 0 0 0 0 0 0 0 0 0 1 2 3 3 2 3 4 5 4 5 7 9 9 8 7 9 10 12 12 11 11 12 13 13 15 17 18 19 19 17 13 12 13 13
0 0 0 0 0 0 0 0 0 0 1 3 3 2 2 3 5 7 7 7 9 11 11 9 7 8 10 12 14 15 15 15 16 15 14 15 16 17 18 16 13 12 11 11
0 0 0 0 0 1 1 1 0 0 2 3 3 2 2 4 7 9 10 11 12 14 13 11 9 8 10 12 15 16 16 16 17 16 14 12 12 14 14 14 13 13 12 11
0 0 0 1 1 2 3 2 0 0 2 3 4 3 3 4 7 11 12 14 15 17 17 14 11 11 11 13 14 15 16 16 16 15 13 12 12 12 12 12 13 13 11 9
0 0 0 1 1 2 2 1 0 1 2 3 4 4 3 5 8 11 13 14 16 19 19 16 14 13 13 14 14 15 16 17 16 14 12 12 12 12 12 12 12 11 10 8

GEFSCGP_con_probscp_270.txt.gz
Probability
0 0 0 0 0 0 0 0 0 0 0 0 0 1 2 1 1 2 5 7 8 8 7 6 7 6 5 5 5 8 10 12 13 14 13 12 11 11 11 12 11 11 9 8
0 0 0 0 0 0 0 0 0 0 0 0 0 1 1 1 0 1 3 6 7 7 7 8 8 8 8 6 6 8 11 13 14 15 15 14 13 13 13 13 12 11 9 8
0 0 0 0 0 0 0 0 0 0 0 0 0 0 1 1 0 0 2 5 6 5 6 9 11 11 11 8 6 8 11 14 15 16 16 16 15 15 14 13 13 11 8 6
0 0 0 0 0 0 0 0 0 0 0 0 0 0 0 0 0 0 1 4 5 4 5 8 12 13 12 9 7 9 12 14 16 16 16 16 16 16 14 13 12 10 7 6
0 0 0 0 0 0 0 0 0 0 0 0 0 0 0 0 0 0 1 3 4 5 5 7 11 13 12 11 10 12 14 16 16 16 15 15 15 15 14 12 11 8 6 6
0 0 0 0 0 0 0 0 0 0 0 0 0 0 0 0 0 0 1 3 5 6 6 7 10 12 14 15 15 17 19 19 18 16 14 14 14 14 13 12 9 7 5 5
0 0 0 0 0 0 0 0 0 0 0 0 0 0 0 0 0 0 2 4 6 7 8 9 10 13 16 18 19 22 23 23 21 17 14 13 13 12 11 10 9 6 5 5
0 0 0 0 0 0 0 0 0 0 0 0 0 0 0 0 0 0 1 3 5 7 8 10 11 13 16 18 20 23 26 26 22 18 14 12 11 10 9 10 8 6 4 4
0 0 0 0 0 0 0 0 0 0 0 0 0 0 0 1 1 1 2 3 4 5 7 10 11 13 15 17 19 23 27 29 25 20 16 13 11 10 10 10 8 5 4 4
0 0 0 0 0 0 0 0 0 0 0 0 0 0 1 2 2 3 4 5 5 5 7 9 11 12 15 18 20 23 28 30 28 24 20 15 12 13 14 13 10 7 7 7
0 0 0 0 0 0 0 0 0 0 0 0 0 0 1 2 3 3 4 6 7 7 7 8 10 13 16 19 22 25 27 28 28 27 23 20 18 17 18 17 13 11 11 10
0 0 0 0 0 0 0 0 0 0 0 0 0 0 0 1 3 4 5 8 10 10 10 10 12 16 19 24 27 27 26 27 28 27 24 22 21 20 20 20 17 15 13 12
0 0 0 0 0 0 0 0 0 0 0 0 0 0 1 1 3 5 7 9 11 12 13 14 16 21 26 29 30 29 26 25 25 25 23 21 21 21 21 21 19 17 15 13
0 0 0 0 0 0 0 0 0 0 0 0 0 1 2 2 4 6 7 8 10 13 15 18 21 25 29 31 30 28 26 25 25 25 23 22 21 22 23 22 20 18 16 14
0 0 0 0 0 0 0 0 0 0 0 0 0 1 2 4 6 7 8 9 10 13 15 19 22 25 27 29 30 29 27 28 30 31 28 25 23 24 24 24 21 19 17 16
0 0 0 0 0 0 0 0 0 0 0 0 0 0 2 5 7 9 10 11 11 11 13 17 21 23 24 27 31 32 32 33 35 35 32 28 25 25 25 24 22 20 18 18
0 0 0 0 0 0 0 0 0 0 1 1 1 1 3 6 9 11 12 12 10 10 11 15 18 20 22 24 28 31 33 35 35 34 32 29 27 27 26 24 23 22 21 20
0 0 0 0 0 0 0 0 0 1 2 2 2 2 4 7 10 11 11 11 10 10 12 14 16 16 19 21 24 26 28 30 32 31 29 28 29 31 29 27 27 27 26 24
1 1 0 0 0 0 0 0 0 1 2 3 4 4 6 9 11 11 10 10 10 10 13 16 17 16 19 23 25 23 22 24 26 26 24 25 28 30 30 30 31 31 30 29
2 1 0 0 0 0 0 0 0 1 2 5 7 8 10 12 13 13 11 10 10 11 13 18 20 21 24 26 26 23 20 21 23 23 21 22 25 27 28 29 30 31 31 31
1 1 0 0 0 0 0 0 1 3 6 9 12 13 15 16 15 14 14 14 14 13 15 21 25 27 28 28 27 24 21 21 24 24 24 24 26 28 27 27 27 28 30 30
0 0 0 1 1 1 1 1 2 6 10 13 15 15 16 16 14 14 15 17 16 15 17 25 31 32 30 28 27 26 23 23 24 25 26 29 31 30 28 27 25 27 29 30
1 1 2 2 4 5 5 3 3 7 11 12 14 14 13 12 11 12 15 18 19 18 21 28 33 34 30 26 25 25 25 24 23 24 28 32 34 32 30 28 26 27 29 29
3 3 4 6 7 7 6 4 3 4 8 12 12 11 10 10 10 12 15 19 21 21 24 28 32 32 29 26 25 25 24 24 23 25 28 32 33 31 29 27 26 25 25 25
4 4 5 8 7 6 6 5 3 4 8 12 12 10 8 9 12 14 17 21 22 22 24 28 30 30 29 29 27 26 25 25 24 24 26 29 30 28 25 23 21 20 18 16
3 4 5 6 6 6 6 5 4 5 8 11 11 9 7 9 13 16 19 21 22 22 23 28 30 29 30 31 29 27 26 26 24 22 24 26 29 27 22 18 17 14 12 10

GEFSCGP_con_probscp_276.txt.gz
Probability
0 0 0 0 0 0 0 0 0 0 0 0 0 0 1 2 2 4 6 9 12 14 14 14 14 14 18 22 22 21 22 23 20 18 18 18 17 15 14 16 17 15 13 11
0 0 0 0 0 0 0 0 0 0 0 0 0 0 2 2 2 3 6 9 12 15 17 18 17 16 19 23 24 23 24 25 23 21 20 20 19 17 14 15 16 14 12 11
0 0 0 0 0 0 0 0 0 0 0 0 0 0 2 2 2 3 4 7 10 14 18 21 21 18 19 24 26 26 28 29 28 27 24 23 22 19 16 14 14 13 12 12
0 0 0 0 0 0 0 0 0 0 0 0 0 0 2 3 3 3 3 5 8 12 17 22 23 19 18 21 26 30 32 32 30 29 27 24 23 21 17 14 13 13 13 14
0 0 0 0 0 0 0 0 0 0 0 0 0 0 1 3 4 3 3 5 8 11 17 24 25 22 18 18 23 31 35 34 32 31 29 27 25 23 18 15 15 15 16 16
0 0 0 0 0 0 0 0 0 0 0 0 0 0 1 3 5 4 3 5 7 10 15 22 27 27 23 22 26 33 39 41 40 37 34 32 31 29 24 19 18 18 17 16
0 0 0 0 0 0 0 0 0 0 0 0 0 1 3 5 6 6 5 6 7 8 11 18 25 29 30 31 35 42 47 48 46 44 42 40 37 34 30 23 20 19 17 15
0 0 0 0 0 0 0 0 0 0 0 0 0 2 4 6 7 7 7 7 7 7 9 14 20 25 29 34 41 48 53 51 48 47 46 44 39 33 29 25 21 20 19 17
0 0 0 0 0 0 0 0 0 0 0 0 1 2 5 7 7 7 8 9 8 8 10 14 17 19 25 33 40 47 53 52 48 45 44 42 38 34 31 28 24 23 22 21
0 0 0 0 0 0 0 0 0 0 0 0 1 2 5 8 7 6 8 10 10 11 13 16 18 20 24 30 36 42 48 49 46 43 40 38 40 40 37 33 30 29 29 27
0 0 0 0 0 0 0 0 0 0 0 0 0 1 3 7 7 7 9 11 14 14 15 18 22 23 24 27 33 40 43 43 42 40 38 38 40 42 40 37 36 34 33 33
0 0 0 0 0 0 0 0 0 0 1 0 0 0 2 5 7 9 11 14 16 16 16 19 22 25 26 29 36 40 40 39 39 38 38 39 41 41 41 41 39 36 35 36
0 0 0 0 0 0 0 0 0 0 0 0 0 1 3 7 10 12 15 19 21 21 20 22 26 28 32 38 43 43 41 40 39 37 38 40 43 43 43 43 41 39 39 40
0 0 0 0 0 0 0 0 0 0 0 0 0 2 5 10 13 15 18 23 26 27 28 30 34 35 38 44 46 44 42 41 40 38 38 40 42 44 44 44 44 43 42 42
0 0 0 0 0 0 0 0 0 0 0 0 1 3 7 12 16 18 20 24 27 30 34 40 44 43 41 42 42 41 41 42 41 40 39 40 41 41 42 43 44 44 43 42
1 2 1 0 0 0 0 0 0 0 0 1 3 6 10 15 19 22 24 26 29 32 38 46 50 49 46 43 40 38 40 42 42 41 40 41 41 40 40 40 40 42 43 42
6 7 4 2 1 0 0 1 1 1 1 4 7 11 14 18 21 25 28 30 32 36 42 49 53 53 50 46 41 39 40 42 45 43 40 40 41 40 38 36 36 40 41 40
11 11 7 2 1 0 1 2 3 3 4 7 11 14 16 19 21 22 26 31 37 41 46 51 52 52 51 46 41 39 39 42 44 43 41 41 40 38 35 33 35 39 40 37
10 11 7 3 1 1 2 4 4 5 8 11 13 16 17 18 19 19 21 29 38 45 49 50 48 48 50 48 43 40 39 41 43 42 42 42 41 39 36 34 35 38 38 35
6 7 6 3 1 1 3 3 4 7 12 15 17 19 21 21 23 25 27 32 38 44 49 48 45 46 51 52 48 44 42 42 42 41 41 42 41 40 39 38 38 38 36 35
3 5 5 4 2 2 4 5 7 14 21 23 22 24 27 29 34 38 41 41 41 44 46 46 47 51 56 57 53 49 47 45 42 40 39 39 40 41 42 42 42 39 37 36
4 5 7 7 7 8 10 13 17 24 29 27 25 26 29 31 36 43 45 44 44 43 43 43 48 54 58 60 57 54 52 48 43 39 38 38 39 41 41 43 42 39 38 37
6 7 11 13 14 15 16 19 23 25 24 22 21 23 25 27 32 38 41 42 42 42 41 43 46 50 55 58 57 55 53 49 43 41 41 41 40 39 39 40 39 36 35 34
7 10 16 20 19 17 18 18 18 17 14 13 14 17 19 22 27 33 38 41 42 40 40 43 46 48 52 55 55 54 52 48 43 41 42 43 41 39 38 38 35 32 30 28
7 11 17 21 21 18 17 15 12 10 9 9 10 13 16 19 23 30 36 42 43 41 39 42 47 49 52 54 53 51 50 48 44 41 40 41 40 38 38 36 31 26 23 21
6 10 15 19 22 20 17 12 8 8 8 7 8 11 14 17 21 28 35 41 44 43 40 42 47 50 53 54 51 50 51 50 47 42 39 38 38 38 37 33 27 22 18 16

GEFSCGP_con_probscp_282.txt.gz
Probability
0 0 0 0 0 0 0 0 0 0 0 0 1 1 2 3 4 6 8 8 6 6 6 5 6 8 8 8 7 7 6 5 5 5 6 6 6 5 5 6 7 7 7 7
0 0 0 0 0 0 0 0 0 0 0 1 2 2 2 3 4 7 8 8 7 6 6 5 7 8 9 9 9 9 8 6 6 7 7 8 8 8 7 8 8 8 8 8
0 0 0 0 0 0 0 0 0 0 0 1 2 2 2 3 4 6 7 7 8 7 6 6 8 9 8 9 11 11 10 8 7 7 8 8 9 9 9 9 9 9 8 8
0 0 0 0 0 0 0 0 0 0 0 0 1 1 1 2 3 4 6 7 8 8 7 7 9 9 8 8 10 11 11 9 7 6 7 7 8 9 10 9 9 8 7 7
0 0 0 0 0 0 0 0 0 0 0 0 0 0 1 2 3 4 5 6 7 8 8 8 9 11 10 8 8 11 12 11 8 7 7 7 9 9 10 9 8 7 6 6
0 0 0 0 0 0 0 0 0 0 0 0 0 0 0 1 1 3 5 6 8 9 9 8 11 13 13 11 10 11 13 13 10 8 8 10 10 10 10 9 7 6 6 6
0 0 0 0 0 0 0 0 0 0 0 0 0 1 1 0 1 3 6 8 9 11 11 11 13 15 16 15 14 15 16 15 13 12 12 12 11 10 9 8 7 6 6 6
0 0 0 0 0 0 0 0 0 0 0 0 0 1 2 1 1 4 7 9 11 14 14 14 16 16 16 17 19 20 20 18 17 15 14 12 10 8 7 6 6 6 6 6
0 0 0 0 0 0 0 0 0 0 0 0 0 1 2 2 3 6 7 8 11 16 18 17 17 16 16 18 20 20 21 21 19 16 13 9 5 3 3 3 4 5 6 6
0 0 0 0 0 0 0 0 0 0 0 0 0 0 1 2 4 7 8 8 11 16 20 19 17 15 15 17 18 18 19 20 19 16 11 6 4 3 3 3 4 5 8 8
0 0 0 0 0 0 0 0 0 0 0 0 0 0 1 2 5 7 8 8 9 14 18 20 18 16 16 17 19 18 17 17 18 16 12 8 6 7 8 8 7 8 9 10
0 0 0 0 0 0 0 0 0 0 0 0 0 1 2 4 6 8 9 9 9 11 15 18 20 20 19 19 19 18 17 18 18 18 17 13 11 12 14 14 12 12 12 11
0 0 0 0 0 0 0 0 0 0 0 0 0 3 5 7 8 10 10 10 10 12 13 15 19 21 21 20 19 18 19 20 21 23 23 21 19 18 18 17 16 16 15 13
0 0 0 0 0 0 0 0 0 0 0 0 1 5 7 9 11 13 12 11 12 15 15 14 16 18 18 16 16 17 20 23 24 26 26 26 24 22 20 19 19 19 17 14
0 0 0 0 0 0 0 1 1 0 0 0 2 5 8 9 12 15 15 14 14 15 15 15 15 16 14 12 13 15 18 22 25 27 26 25 24 22 20 19 19 18 15 14
0 0 0 0 0 0 0 1 2 1 0 1 3 6 8 9 12 15 17 17 15 13 13 15 17 16 13 12 14 17 19 21 25 27 26 25 24 22 20 19 17 15 14 13
0 0 0 0 0 0 0 1 1 1 1 3 5 8 10 11 12 16 19 18 17 15 14 15 16 15 12 14 19 21 22 23 26 27 27 26 25 23 21 18 16 14 13 13
0 0 0 0 0 0 0 1 2 3 4 6 7 10 14 15 17 20 21 20 18 18 18 16 15 13 13 17 21 24 26 28 30 31 30 28 25 23 21 19 17 15 15 15
0 0 0 0 0 0 1 3 6 8 8 8 9 12 16 17 18 19 19 18 18 19 20 19 17 16 18 21 24 27 30 32 33 33 32 29 25 23 22 20 18 16 15 16
0 0 0 0 1 2 4 7 10 10 9 8 9 12 13 13 14 15 15 15 17 20 21 21 20 22 25 26 27 29 30 31 31 30 31 29 27 25 24 22 19 17 17 17
0 0 0 0 2 4 6 8 8 8 8 9 10 11 10 9 11 14 15 16 19 21 23 24 25 27 28 28 28 28 28 28 27 27 28 29 27 26 25 23 20 19 18 18
0 0 0 0 2 4 5 6 6 6 8 11 12 12 10 10 11 13 15 19 22 24 25 27 28 28 28 27 28 28 27 26 25 25 26 27 27 27 26 24 22 19 18 17
1 0 0 0 2 4 4 5 6 7 9 12 12 11 10 11 12 12 15 20 24 25 26 27 28 28 28 27 27 26 25 24 23 23 23 25 26 26 25 24 22 20 17 17
1 1 1 1 3 4 5 5 6 8 9 9 9 9 10 10 11 12 15 20 24 25 24 24 24 24 25 25 24 23 22 21 21 21 21 23 24 23 21 20 20 18 16 16
1 1 2 2 3 3 4 5 5 6 7 8 9 10 11 11 11 12 14 18 21 22 23 21 18 18 21 22 22 22 23 22 21 20 20 21 21 19 17 15 15 13 12 12
0 1 2 2 2 2 4 4 2 3 6 9 10 12 12 12 11 12 14 16 18 19 22 20 16 15 18 20 21 23 24 24 22 21 20 19 18 17 16 14 12 9 8 8